Time,TemperatureF,DewpointF,PressureIn,WindDirection,WindDirectionDegrees,WindSpeedMPH,WindSpeedGustMPH,Humidity,HourlyPrecipIn,Conditions,Clouds,dailyrainin,SoftwareType,DateUTC
2013-03-02 00:02:00,38.5,28.8,30.08,WNW,293,3.8,5.8,68,0.00,,,0.00,WUHU216HW,2013-03-02 07:02:00,
2013-03-02 00:03:00,38.5,28.8,30.08,WNW,293,3.6,5.8,68,0.00,,,0.00,WUHU216HW,2013-03-02 07:03:00,
2013-03-02 00:04:00,38.7,29.0,30.08,West,270,1.1,5.8,68,0.00,,,0.00,WUHU216HW,2013-03-02 07:04:00,
2013-03-02 00:08:00,38.9,28.8,30.08,West,270,0.0,5.8,67,0.00,,,0.00,WUHU216HW,2013-03-02 07:08:00,
2013-03-02 00:09:00,38.9,28.8,30.08,West,270,0.0,5.4,67,0.00,,,0.00,WUHU216HW,2013-03-02 07:09:00,
2013-03-02 00:13:00,38.5,28.4,30.08,WSW,248,4.3,6.5,67,0.00,,,0.00,WUHU216HW,2013-03-02 07:13:00,
2013-03-02 00:15:00,38.3,28.7,30.08,WSW,248,2.7,6.5,68,0.00,,,0.00,WUHU216HW,2013-03-02 07:15:00,
2013-03-02 00:18:00,38.3,28.3,30.08,WSW,248,0.4,6.5,67,0.00,,,0.00,WUHU216HW,2013-03-02 07:18:00,
2013-03-02 00:20:00,38.3,28.3,30.08,SE,135,1.3,6.5,67,0.00,,,0.00,WUHU216HW,2013-03-02 07:20:00,
2013-03-02 00:23:00,38.2,28.2,30.08,WSW,248,5.1,5.1,67,0.00,,,0.00,WUHU216HW,2013-03-02 07:23:00,
2013-03-02 00:25:00,38.2,28.2,30.08,WSW,248,6.5,7.4,67,0.00,,,0.00,WUHU216HW,2013-03-02 07:25:00,
2013-03-02 00:28:00,38.0,28.7,30.08,SW,225,5.4,9.2,69,0.00,,,0.00,WUHU216HW,2013-03-02 07:28:00,
2013-03-02 00:29:00,38.0,28.7,30.08,WSW,248,6.0,9.2,69,0.00,,,0.00,WUHU216HW,2013-03-02 07:29:00,
2013-03-02 00:30:00,38.2,29.3,30.08,SW,225,2.0,9.2,70,0.00,,,0.00,WUHU216HW,2013-03-02 07:30:00,
2013-03-02 00:33:00,38.3,29.1,30.08,WSW,248,2.5,9.2,69,0.00,,,0.00,WUHU216HW,2013-03-02 07:33:00,
2013-03-02 00:34:00,38.3,29.1,30.08,West,270,3.1,9.2,69,0.00,,,0.00,WUHU216HW,2013-03-02 07:34:00,
2013-03-02 00:35:00,38.5,29.3,30.08,WSW,248,9.6,9.6,69,0.00,,,0.00,WUHU216HW,2013-03-02 07:35:00,
2013-03-02 00:38:00,38.5,29.3,30.08,WSW,248,6.9,11.6,69,0.00,,,0.00,WUHU216HW,2013-03-02 07:38:00,
2013-03-02 00:39:00,38.5,29.3,30.08,SW,225,3.8,11.6,69,0.00,,,0.00,WUHU216HW,2013-03-02 07:39:00,
2013-03-02 00:40:00,38.7,29.3,30.08,WSW,248,2.5,11.6,69,0.00,,,0.00,WUHU216HW,2013-03-02 07:40:00,
2013-03-02 00:43:00,38.9,29.2,30.08,West,270,7.8,11.6,68,0.00,,,0.00,WUHU216HW,2013-03-02 07:43:00,
2013-03-02 00:44:00,38.7,29.0,30.08,West,270,8.1,11.6,68,0.00,,,0.00,WUHU216HW,2013-03-02 07:44:00,
2013-03-02 00:45:00,38.5,28.8,30.08,West,270,6.5,11.6,68,0.00,,,0.00,WUHU216HW,2013-03-02 07:45:00,
2013-03-02 00:48:00,38.2,28.9,30.08,West,270,8.3,8.3,69,0.00,,,0.00,WUHU216HW,2013-03-02 07:48:00,
2013-03-02 00:49:00,38.2,28.9,30.08,West,270,7.8,8.7,69,0.00,,,0.00,WUHU216HW,2013-03-02 07:49:00,
2013-03-02 00:50:00,38.2,28.9,30.08,West,270,6.5,8.7,69,0.00,,,0.00,WUHU216HW,2013-03-02 07:50:00,
2013-03-02 00:54:00,38.2,28.9,30.08,West,270,4.0,8.7,69,0.00,,,0.00,WUHU216HW,2013-03-02 07:54:00,
2013-03-02 00:55:00,38.3,29.1,30.08,WSW,248,6.9,8.7,69,0.00,,,0.00,WUHU216HW,2013-03-02 07:55:00,
2013-03-02 00:59:00,38.5,29.3,30.08,WSW,248,7.4,9.8,69,0.00,,,0.00,WUHU216HW,2013-03-02 07:59:00,
2013-03-02 01:01:00,38.7,29.3,30.08,WSW,248,4.0,9.8,69,0.00,,,0.00,WUHU216HW,2013-03-02 08:01:00,
2013-03-02 01:04:00,39.1,29.4,30.08,WSW,248,6.0,9.8,68,0.00,,,0.00,WUHU216HW,2013-03-02 08:04:00,
2013-03-02 01:05:00,39.1,29.4,30.08,WSW,248,4.9,9.8,68,0.00,,,0.00,WUHU216HW,2013-03-02 08:05:00,
2013-03-02 01:09:00,38.9,29.2,30.07,SE,135,4.7,7.4,68,0.00,,,0.00,WUHU216HW,2013-03-02 08:09:00,
2013-03-02 01:11:00,38.7,29.0,30.07,ESE,113,2.5,6.5,68,0.00,,,0.00,WUHU216HW,2013-03-02 08:11:00,
2013-03-02 01:14:00,38.9,29.2,30.07,ESE,113,2.2,6.5,68,0.00,,,0.00,WUHU216HW,2013-03-02 08:14:00,
2013-03-02 01:15:00,39.1,29.0,30.07,ESE,113,2.5,6.0,67,0.00,,,0.00,WUHU216HW,2013-03-02 08:15:00,
2013-03-02 01:16:00,39.1,29.0,30.07,ESE,113,2.9,5.8,67,0.00,,,0.00,WUHU216HW,2013-03-02 08:16:00,
2013-03-02 01:19:00,39.2,29.1,30.08,SE,135,1.8,5.8,67,0.00,,,0.00,WUHU216HW,2013-03-02 08:19:00,
2013-03-02 01:20:00,39.2,29.1,30.08,SSE,158,2.0,5.8,67,0.00,,,0.00,WUHU216HW,2013-03-02 08:20:00,
2013-03-02 01:21:00,39.2,29.1,30.07,South,180,2.5,2.9,67,0.00,,,0.00,WUHU216HW,2013-03-02 08:21:00,
2013-03-02 01:24:00,39.2,29.1,30.08,SW,225,0.9,2.9,67,0.00,,,0.00,WUHU216HW,2013-03-02 08:24:00,
2013-03-02 01:25:00,39.2,29.1,30.08,SW,225,1.6,2.9,67,0.00,,,0.00,WUHU216HW,2013-03-02 08:25:00,
2013-03-02 01:26:00,39.2,29.1,30.08,SW,225,1.8,2.9,67,0.00,,,0.00,WUHU216HW,2013-03-02 08:26:00,
2013-03-02 01:29:00,38.9,28.8,30.08,North,0,3.1,4.7,67,0.00,,,0.00,WUHU216HW,2013-03-02 08:29:00,
2013-03-02 01:30:00,38.9,28.8,30.08,North,0,2.7,4.7,67,0.00,,,0.00,WUHU216HW,2013-03-02 08:30:00,
2013-03-02 01:31:00,38.5,28.8,30.08,NNW,338,1.8,4.7,68,0.00,,,0.00,WUHU216HW,2013-03-02 08:31:00,
2013-03-02 01:34:00,38.2,28.9,30.08,West,270,5.4,5.4,69,0.00,,,0.00,WUHU216HW,2013-03-02 08:34:00,
2013-03-02 01:35:00,38.0,28.7,30.08,WSW,248,4.7,5.6,69,0.00,,,0.00,WUHU216HW,2013-03-02 08:35:00,
2013-03-02 01:37:00,37.8,28.5,30.08,WSW,248,4.0,5.6,69,0.00,,,0.00,WUHU216HW,2013-03-02 08:37:00,
2013-03-02 01:39:00,37.6,28.5,30.08,WSW,248,4.5,7.2,69,0.00,,,0.00,WUHU216HW,2013-03-02 08:39:00,
2013-03-02 01:40:00,37.6,28.5,30.08,WSW,248,4.9,7.2,69,0.00,,,0.00,WUHU216HW,2013-03-02 08:40:00,
2013-03-02 01:41:00,37.4,28.3,30.08,WSW,248,1.6,7.2,69,0.00,,,0.00,WUHU216HW,2013-03-02 08:41:00,
2013-03-02 01:44:00,37.3,28.1,30.08,WSW,248,1.8,7.2,69,0.00,,,0.00,WUHU216HW,2013-03-02 08:44:00,
2013-03-02 01:45:00,37.3,28.1,30.08,WSW,248,2.9,7.2,69,0.00,,,0.00,WUHU216HW,2013-03-02 08:45:00,
2013-03-02 01:47:00,37.3,28.1,30.08,South,180,1.8,7.2,69,0.00,,,0.00,WUHU216HW,2013-03-02 08:47:00,
2013-03-02 01:49:00,37.3,28.1,30.08,WSW,248,4.0,4.9,69,0.00,,,0.00,WUHU216HW,2013-03-02 08:49:00,
2013-03-02 01:50:00,37.3,28.1,30.08,WSW,248,5.4,5.4,69,0.00,,,0.00,WUHU216HW,2013-03-02 08:50:00,
2013-03-02 01:51:00,37.1,27.9,30.08,West,270,5.6,5.6,69,0.00,,,0.00,WUHU216HW,2013-03-02 08:51:00,
2013-03-02 01:52:00,37.1,27.9,30.08,WSW,248,2.9,5.6,69,0.00,,,0.00,WUHU216HW,2013-03-02 08:52:00,
2013-03-02 01:54:00,36.9,27.7,30.08,West,270,3.6,5.6,69,0.00,,,0.00,WUHU216HW,2013-03-02 08:54:00,
2013-03-02 01:55:00,36.9,28.5,30.08,West,270,4.7,5.6,71,0.00,,,0.00,WUHU216HW,2013-03-02 08:55:00,
2013-03-02 01:56:00,36.9,28.5,30.08,West,270,4.5,5.6,71,0.00,,,0.00,WUHU216HW,2013-03-02 08:56:00,
2013-03-02 01:57:00,36.7,27.9,30.08,WSW,248,2.7,5.6,70,0.00,,,0.00,WUHU216HW,2013-03-02 08:57:00,
2013-03-02 01:59:00,36.5,27.7,30.08,WSW,248,2.5,5.6,70,0.00,,,0.00,WUHU216HW,2013-03-02 08:59:00,
2013-03-02 02:00:00,36.5,27.7,30.08,West,270,4.0,5.6,70,0.00,,,0.00,WUHU216HW,2013-03-02 09:00:00,
2013-03-02 02:01:00,36.5,28.1,30.08,West,270,4.0,5.6,71,0.00,,,0.00,WUHU216HW,2013-03-02 09:01:00,
2013-03-02 02:02:00,36.4,27.9,30.08,West,270,2.7,4.7,71,0.00,,,0.00,WUHU216HW,2013-03-02 09:02:00,
2013-03-02 02:04:00,36.4,27.9,30.08,SSE,158,2.5,4.7,71,0.00,,,0.00,WUHU216HW,2013-03-02 09:04:00,
2013-03-02 02:05:00,36.4,27.9,30.08,SE,135,3.4,4.5,71,0.00,,,0.00,WUHU216HW,2013-03-02 09:05:00,
2013-03-02 02:06:00,36.4,27.9,30.08,SE,135,4.5,4.5,71,0.00,,,0.00,WUHU216HW,2013-03-02 09:06:00,
2013-03-02 02:07:00,36.4,27.9,30.08,SE,135,4.9,4.9,71,0.00,,,0.00,WUHU216HW,2013-03-02 09:07:00,
2013-03-02 02:09:00,36.4,27.9,30.08,South,180,1.8,4.9,71,0.00,,,0.00,WUHU216HW,2013-03-02 09:09:00,
2013-03-02 02:10:00,36.4,27.9,30.08,SW,225,2.7,4.9,71,0.00,,,0.00,WUHU216HW,2013-03-02 09:10:00,
2013-03-02 02:11:00,36.4,27.9,30.08,SW,225,2.7,4.9,71,0.00,,,0.00,WUHU216HW,2013-03-02 09:11:00,
2013-03-02 02:12:00,36.4,27.9,30.08,SW,225,4.3,4.9,71,0.00,,,0.00,WUHU216HW,2013-03-02 09:12:00,
2013-03-02 02:15:00,36.4,27.9,30.08,South,180,4.0,4.9,71,0.00,,,0.00,WUHU216HW,2013-03-02 09:15:00,
2013-03-02 02:16:00,36.4,27.9,30.08,SSW,203,3.4,4.9,71,0.00,,,0.00,WUHU216HW,2013-03-02 09:16:00,
2013-03-02 02:17:00,36.4,27.9,30.08,SSW,203,4.9,4.9,71,0.00,,,0.00,WUHU216HW,2013-03-02 09:17:00,
2013-03-02 02:20:00,36.2,27.7,30.08,SW,225,4.0,4.9,71,0.00,,,0.00,WUHU216HW,2013-03-02 09:20:00,
2013-03-02 02:21:00,36.2,27.7,30.08,SW,225,4.0,4.9,71,0.00,,,0.00,WUHU216HW,2013-03-02 09:21:00,
2013-03-02 02:22:00,36.2,27.7,30.08,WSW,248,3.1,4.9,71,0.00,,,0.00,WUHU216HW,2013-03-02 09:22:00,
2013-03-02 02:23:00,36.2,27.7,30.08,SW,225,3.1,4.9,71,0.00,,,0.00,WUHU216HW,2013-03-02 09:23:00,
2013-03-02 02:25:00,36.2,28.0,30.08,SSW,203,4.3,5.1,72,0.00,,,0.00,WUHU216HW,2013-03-02 09:25:00,
2013-03-02 02:26:00,36.2,28.0,30.08,SW,225,4.0,5.1,72,0.00,,,0.00,WUHU216HW,2013-03-02 09:26:00,
2013-03-02 02:27:00,36.0,27.8,30.08,WSW,248,3.8,5.1,72,0.00,,,0.00,WUHU216HW,2013-03-02 09:27:00,
2013-03-02 02:28:00,36.0,27.8,30.08,WSW,248,4.5,5.1,72,0.00,,,0.00,WUHU216HW,2013-03-02 09:28:00,
2013-03-02 02:30:00,36.0,27.8,30.08,WSW,248,6.0,6.3,72,0.00,,,0.00,WUHU216HW,2013-03-02 09:30:00,
2013-03-02 02:31:00,36.0,27.8,30.08,WSW,248,5.6,6.3,72,0.00,,,0.00,WUHU216HW,2013-03-02 09:31:00,
2013-03-02 02:32:00,36.2,28.4,30.08,West,270,4.7,6.3,73,0.00,,,0.00,WUHU216HW,2013-03-02 09:32:00,
2013-03-02 02:33:00,36.2,28.0,30.08,WSW,248,4.5,6.3,72,0.00,,,0.00,WUHU216HW,2013-03-02 09:33:00,
2013-03-02 02:35:00,36.0,27.8,30.08,WSW,248,3.6,6.3,72,0.00,,,0.00,WUHU216HW,2013-03-02 09:35:00,
2013-03-02 02:36:00,36.0,27.8,30.08,WSW,248,2.7,6.3,72,0.00,,,0.00,WUHU216HW,2013-03-02 09:36:00,
2013-03-02 02:37:00,36.0,27.8,30.08,WSW,248,3.4,6.3,72,0.00,,,0.00,WUHU216HW,2013-03-02 09:37:00,
2013-03-02 02:38:00,35.8,27.6,30.08,WSW,248,4.0,6.3,72,0.00,,,0.00,WUHU216HW,2013-03-02 09:38:00,
2013-03-02 02:41:00,35.6,27.2,30.08,WSW,248,4.5,5.6,71,0.00,,,0.00,WUHU216HW,2013-03-02 09:41:00,
2013-03-02 02:42:00,35.5,27.0,30.08,WSW,248,4.7,5.4,71,0.00,,,0.00,WUHU216HW,2013-03-02 09:42:00,
2013-03-02 02:43:00,35.3,27.1,30.08,SW,225,3.8,4.9,72,0.00,,,0.00,WUHU216HW,2013-03-02 09:43:00,
2013-03-02 02:46:00,35.3,27.1,30.08,SW,225,3.4,4.9,72,0.00,,,0.00,WUHU216HW,2013-03-02 09:46:00,
2013-03-02 02:47:00,35.3,27.1,30.08,SW,225,2.5,4.9,72,0.00,,,0.00,WUHU216HW,2013-03-02 09:47:00,
2013-03-02 02:48:00,35.3,27.1,30.08,SW,225,3.1,4.9,72,0.00,,,0.00,WUHU216HW,2013-03-02 09:48:00,
2013-03-02 02:51:00,35.3,27.1,30.08,SW,225,3.1,4.7,72,0.00,,,0.00,WUHU216HW,2013-03-02 09:51:00,
2013-03-02 02:52:00,35.3,27.1,30.08,WSW,248,4.0,4.7,72,0.00,,,0.00,WUHU216HW,2013-03-02 09:52:00,
2013-03-02 02:53:00,35.3,27.1,30.08,WSW,248,4.0,4.5,72,0.00,,,0.00,WUHU216HW,2013-03-02 09:53:00,
2013-03-02 02:56:00,35.3,27.5,30.08,WSW,248,3.8,5.4,73,0.00,,,0.00,WUHU216HW,2013-03-02 09:56:00,
2013-03-02 02:57:00,35.3,27.5,30.08,WSW,248,2.5,5.4,73,0.00,,,0.00,WUHU216HW,2013-03-02 09:57:00,
2013-03-02 02:58:00,35.3,27.5,30.08,SW,225,2.9,5.4,73,0.00,,,0.00,WUHU216HW,2013-03-02 09:58:00,
2013-03-02 03:01:00,35.3,27.5,30.07,WSW,248,4.5,5.4,73,0.00,,,0.00,WUHU216HW,2013-03-02 10:01:00,
2013-03-02 03:02:00,35.3,27.5,30.08,WSW,248,6.5,6.5,73,0.00,,,0.00,WUHU216HW,2013-03-02 10:02:00,
2013-03-02 03:03:00,35.3,27.5,30.07,WSW,248,7.6,7.8,73,0.00,,,0.00,WUHU216HW,2013-03-02 10:03:00,
2013-03-02 03:06:00,35.3,27.5,30.07,WSW,248,5.6,7.8,73,0.00,,,0.00,WUHU216HW,2013-03-02 10:06:00,
2013-03-02 03:08:00,35.5,27.6,30.07,SW,225,3.6,7.8,73,0.00,,,0.00,WUHU216HW,2013-03-02 10:08:00,
2013-03-02 03:09:00,35.5,27.6,30.07,SW,225,4.9,7.8,73,0.00,,,0.00,WUHU216HW,2013-03-02 10:09:00,
2013-03-02 03:11:00,35.5,27.6,30.07,WSW,248,5.1,7.8,73,0.00,,,0.00,WUHU216HW,2013-03-02 10:11:00,
2013-03-02 03:12:00,35.5,27.6,30.07,WSW,248,7.8,8.3,73,0.00,,,0.00,WUHU216HW,2013-03-02 10:12:00,
2013-03-02 03:13:00,35.5,27.6,30.07,WSW,248,7.8,8.3,73,0.00,,,0.00,WUHU216HW,2013-03-02 10:13:00,
2013-03-02 03:14:00,35.5,27.6,30.07,West,270,7.6,8.5,73,0.00,,,0.00,WUHU216HW,2013-03-02 10:14:00,
2013-03-02 03:16:00,35.5,27.6,30.07,WSW,248,5.6,8.5,73,0.00,,,0.00,WUHU216HW,2013-03-02 10:16:00,
2013-03-02 03:18:00,35.6,27.8,30.07,WSW,248,5.6,8.5,73,0.00,,,0.00,WUHU216HW,2013-03-02 10:18:00,
2013-03-02 03:19:00,35.6,27.8,30.07,WSW,248,5.8,8.5,73,0.00,,,0.00,WUHU216HW,2013-03-02 10:19:00,
2013-03-02 03:21:00,35.6,27.8,30.07,WSW,248,6.9,8.5,73,0.00,,,0.00,WUHU216HW,2013-03-02 10:21:00,
2013-03-02 03:23:00,35.6,27.8,30.07,WSW,248,9.2,9.2,73,0.00,,,0.00,WUHU216HW,2013-03-02 10:23:00,
2013-03-02 03:24:00,35.6,28.1,30.07,WSW,248,8.5,9.2,74,0.00,,,0.00,WUHU216HW,2013-03-02 10:24:00,
2013-03-02 03:26:00,35.6,28.1,30.06,West,270,8.5,9.2,74,0.00,,,0.00,WUHU216HW,2013-03-02 10:26:00,
2013-03-02 03:28:00,35.6,28.1,30.06,West,270,8.1,9.2,74,0.00,,,0.00,WUHU216HW,2013-03-02 10:28:00,
2013-03-02 03:29:00,35.6,27.8,30.06,WSW,248,6.7,9.2,73,0.00,,,0.00,WUHU216HW,2013-03-02 10:29:00,
2013-03-02 03:31:00,35.5,27.6,30.06,WSW,248,6.3,9.2,73,0.00,,,0.00,WUHU216HW,2013-03-02 10:31:00,
2013-03-02 03:33:00,35.5,27.6,30.06,West,270,7.6,9.2,73,0.00,,,0.00,WUHU216HW,2013-03-02 10:33:00,
2013-03-02 03:34:00,35.3,27.5,30.06,West,270,6.9,9.2,73,0.00,,,0.00,WUHU216HW,2013-03-02 10:34:00,
2013-03-02 03:35:00,35.3,27.5,30.06,WSW,248,6.3,8.9,73,0.00,,,0.00,WUHU216HW,2013-03-02 10:35:00,
2013-03-02 03:37:00,35.3,27.5,30.06,West,270,6.0,8.5,73,0.00,,,0.00,WUHU216HW,2013-03-02 10:37:00,
2013-03-02 03:38:00,35.3,27.5,30.06,West,270,6.7,7.8,73,0.00,,,0.00,WUHU216HW,2013-03-02 10:38:00,
2013-03-02 03:40:00,35.3,27.5,30.06,West,270,6.0,7.8,73,0.00,,,0.00,WUHU216HW,2013-03-02 10:40:00,
2013-03-02 03:42:00,35.3,27.5,30.06,West,270,5.6,7.8,73,0.00,,,0.00,WUHU216HW,2013-03-02 10:42:00,
2013-03-02 03:43:00,35.1,27.3,30.06,West,270,6.0,7.8,73,0.00,,,0.00,WUHU216HW,2013-03-02 10:43:00,
2013-03-02 03:46:00,34.9,27.1,30.06,West,270,6.3,6.9,73,0.00,,,0.00,WUHU216HW,2013-03-02 10:46:00,
2013-03-02 03:47:00,34.9,27.4,30.06,WSW,248,5.6,6.9,74,0.00,,,0.00,WUHU216HW,2013-03-02 10:47:00,
2013-03-02 03:48:00,34.9,27.1,30.06,West,270,6.9,6.9,73,0.00,,,0.00,WUHU216HW,2013-03-02 10:48:00,
2013-03-02 03:51:00,34.9,27.1,30.06,WSW,248,6.9,6.9,73,0.00,,,0.00,WUHU216HW,2013-03-02 10:51:00,
2013-03-02 03:52:00,34.9,27.1,30.06,West,270,7.2,7.2,73,0.00,,,0.00,WUHU216HW,2013-03-02 10:52:00,
2013-03-02 03:54:00,34.9,27.4,30.07,WSW,248,7.6,8.3,74,0.00,,,0.00,WUHU216HW,2013-03-02 10:54:00,
2013-03-02 03:56:00,34.9,27.4,30.07,WSW,248,6.9,8.3,74,0.00,,,0.00,WUHU216HW,2013-03-02 10:56:00,
2013-03-02 03:57:00,35.1,27.5,30.06,WSW,248,6.5,8.3,74,0.00,,,0.00,WUHU216HW,2013-03-02 10:57:00,
2013-03-02 03:59:00,35.3,27.7,30.06,WSW,248,6.9,8.3,74,0.00,,,0.00,WUHU216HW,2013-03-02 10:59:00,
2013-03-02 04:01:00,35.3,27.5,30.06,WSW,248,5.8,8.3,73,0.00,,,0.00,WUHU216HW,2013-03-02 11:01:00,
2013-03-02 04:02:00,35.3,27.5,30.06,WSW,248,5.4,7.8,73,0.00,,,0.00,WUHU216HW,2013-03-02 11:02:00,
2013-03-02 04:03:00,35.3,27.5,30.06,WSW,248,5.4,7.8,73,0.00,,,0.00,WUHU216HW,2013-03-02 11:03:00,
2013-03-02 04:05:00,35.3,27.5,30.06,WSW,248,4.0,7.6,73,0.00,,,0.00,WUHU216HW,2013-03-02 11:05:00,
2013-03-02 04:06:00,35.3,27.5,30.07,West,270,5.6,6.9,73,0.00,,,0.00,WUHU216HW,2013-03-02 11:06:00,
2013-03-02 04:08:00,35.3,27.5,30.06,North,0,3.1,6.9,73,0.00,,,0.00,WUHU216HW,2013-03-02 11:08:00,
2013-03-02 04:10:00,35.3,27.5,30.06,North,0,0.0,5.8,73,0.00,,,0.00,WUHU216HW,2013-03-02 11:10:00,
2013-03-02 04:11:00,35.3,27.5,30.06,SSW,203,1.1,5.6,73,0.00,,,0.00,WUHU216HW,2013-03-02 11:11:00,
2013-03-02 04:13:00,35.3,27.5,30.06,SW,225,2.0,5.6,73,0.00,,,0.00,WUHU216HW,2013-03-02 11:13:00,
2013-03-02 04:15:00,35.1,27.3,30.07,South,180,4.0,5.6,73,0.00,,,0.00,WUHU216HW,2013-03-02 11:15:00,
2013-03-02 04:16:00,35.1,27.3,30.07,SSE,158,3.1,4.9,73,0.00,,,0.00,WUHU216HW,2013-03-02 11:16:00,
2013-03-02 04:18:00,34.9,27.1,30.07,SW,225,3.1,4.0,73,0.00,,,0.00,WUHU216HW,2013-03-02 11:18:00,
2013-03-02 04:20:00,34.9,27.1,30.07,WSW,248,3.6,4.0,73,0.00,,,0.00,WUHU216HW,2013-03-02 11:20:00,
2013-03-02 04:21:00,34.9,27.1,30.07,SW,225,3.4,4.0,73,0.00,,,0.00,WUHU216HW,2013-03-02 11:21:00,
2013-03-02 04:23:00,34.9,27.1,30.07,WSW,248,3.6,4.0,73,0.00,,,0.00,WUHU216HW,2013-03-02 11:23:00,
2013-03-02 04:25:00,34.7,26.9,30.07,WSW,248,4.9,4.9,73,0.00,,,0.00,WUHU216HW,2013-03-02 11:25:00,
2013-03-02 04:26:00,34.7,26.9,30.07,WSW,248,5.1,5.6,73,0.00,,,0.00,WUHU216HW,2013-03-02 11:26:00,
2013-03-02 04:28:00,34.7,26.9,30.07,WSW,248,4.3,5.6,73,0.00,,,0.00,WUHU216HW,2013-03-02 11:28:00,
2013-03-02 04:30:00,34.7,26.9,30.07,WSW,248,2.9,5.6,73,0.00,,,0.00,WUHU216HW,2013-03-02 11:30:00,
2013-03-02 04:32:00,34.6,26.7,30.07,West,270,2.0,5.6,73,0.00,,,0.00,WUHU216HW,2013-03-02 11:32:00,
2013-03-02 04:33:00,34.6,26.7,30.06,West,270,2.7,5.6,73,0.00,,,0.00,WUHU216HW,2013-03-02 11:33:00,
2013-03-02 04:34:00,34.6,26.7,30.07,West,270,3.1,5.6,73,0.00,,,0.00,WUHU216HW,2013-03-02 11:34:00,
2013-03-02 04:35:00,34.6,26.7,30.07,WSW,248,5.4,5.6,73,0.00,,,0.00,WUHU216HW,2013-03-02 11:35:00,
2013-03-02 04:37:00,34.4,26.6,30.07,WSW,248,3.8,5.6,73,0.00,,,0.00,WUHU216HW,2013-03-02 11:37:00,
2013-03-02 04:38:00,34.2,26.4,30.07,SSW,203,2.0,5.6,73,0.00,,,0.00,WUHU216HW,2013-03-02 11:38:00,
2013-03-02 04:39:00,34.2,26.4,30.07,SSW,203,2.0,5.6,73,0.00,,,0.00,WUHU216HW,2013-03-02 11:39:00,
2013-03-02 04:40:00,34.2,26.4,30.06,SW,225,3.1,5.6,73,0.00,,,0.00,WUHU216HW,2013-03-02 11:40:00,
2013-03-02 04:42:00,34.2,26.4,30.06,West,270,3.4,5.6,73,0.00,,,0.00,WUHU216HW,2013-03-02 11:42:00,
2013-03-02 04:43:00,34.2,27.0,30.06,West,270,4.0,5.6,75,0.00,,,0.00,WUHU216HW,2013-03-02 11:43:00,
2013-03-02 04:44:00,34.2,27.0,30.07,West,270,4.0,5.6,75,0.00,,,0.00,WUHU216HW,2013-03-02 11:44:00,
2013-03-02 04:45:00,34.2,26.6,30.07,WSW,248,4.3,5.6,74,0.00,,,0.00,WUHU216HW,2013-03-02 11:45:00,
2013-03-02 04:47:00,34.0,26.5,30.07,SW,225,2.7,4.7,74,0.00,,,0.00,WUHU216HW,2013-03-02 11:47:00,
2013-03-02 04:49:00,34.0,26.5,30.07,SW,225,0.2,4.7,74,0.00,,,0.00,WUHU216HW,2013-03-02 11:49:00,
2013-03-02 04:50:00,34.0,26.5,30.06,SW,225,0.4,4.7,74,0.00,,,0.00,WUHU216HW,2013-03-02 11:50:00,
2013-03-02 04:52:00,34.0,26.5,30.07,West,270,3.8,4.7,74,0.00,,,0.00,WUHU216HW,2013-03-02 11:52:00,
2013-03-02 04:54:00,34.0,26.5,30.07,West,270,0.7,4.3,74,0.00,,,0.00,WUHU216HW,2013-03-02 11:54:00,
2013-03-02 04:55:00,34.0,26.5,30.07,WNW,293,0.9,4.3,74,0.00,,,0.00,WUHU216HW,2013-03-02 11:55:00,
2013-03-02 04:57:00,34.0,26.5,30.07,NNW,338,0.4,4.0,74,0.00,,,0.00,WUHU216HW,2013-03-02 11:57:00,
2013-03-02 04:59:00,34.0,26.5,30.07,SSE,158,1.3,4.0,74,0.00,,,0.00,WUHU216HW,2013-03-02 11:59:00,
2013-03-02 05:00:00,34.0,26.5,30.07,SSW,203,4.7,4.7,74,0.00,,,0.00,WUHU216HW,2013-03-02 12:00:00,
2013-03-02 05:03:00,34.0,26.5,30.07,SW,225,4.0,5.4,74,0.00,,,0.00,WUHU216HW,2013-03-02 12:03:00,
2013-03-02 05:04:00,34.0,26.5,30.07,SW,225,3.8,5.4,74,0.00,,,0.00,WUHU216HW,2013-03-02 12:04:00,
2013-03-02 05:06:00,34.0,26.5,30.07,SW,225,6.0,6.0,74,0.00,,,0.00,WUHU216HW,2013-03-02 12:06:00,
2013-03-02 05:08:00,33.8,26.3,30.07,WSW,248,6.9,6.9,74,0.00,,,0.00,WUHU216HW,2013-03-02 12:08:00,
2013-03-02 05:09:00,33.8,26.6,30.07,SW,225,4.7,6.9,75,0.00,,,0.00,WUHU216HW,2013-03-02 12:09:00,
2013-03-02 05:11:00,33.7,26.5,30.07,SW,225,4.7,6.9,75,0.00,,,0.00,WUHU216HW,2013-03-02 12:11:00,
2013-03-02 05:13:00,33.7,26.5,30.07,SSW,203,3.8,6.9,75,0.00,,,0.00,WUHU216HW,2013-03-02 12:13:00,
2013-03-02 05:14:00,33.7,26.5,30.07,SSW,203,2.9,6.9,75,0.00,,,0.00,WUHU216HW,2013-03-02 12:14:00,
2013-03-02 05:15:00,33.7,26.5,30.07,SSW,203,2.9,6.9,75,0.00,,,0.00,WUHU216HW,2013-03-02 12:15:00,
2013-03-02 05:16:00,33.7,26.5,30.07,SW,225,3.1,6.9,75,0.00,,,0.00,WUHU216HW,2013-03-02 12:16:00,
2013-03-02 05:18:00,33.7,26.5,30.07,WSW,248,4.7,6.9,75,0.00,,,0.00,WUHU216HW,2013-03-02 12:18:00,
2013-03-02 05:19:00,33.7,26.5,30.07,SW,225,4.0,5.1,75,0.00,,,0.00,WUHU216HW,2013-03-02 12:19:00,
2013-03-02 05:20:00,33.7,26.5,30.07,SW,225,4.0,5.1,75,0.00,,,0.00,WUHU216HW,2013-03-02 12:20:00,
2013-03-02 05:21:00,33.7,26.5,30.07,SW,225,3.8,4.7,75,0.00,,,0.00,WUHU216HW,2013-03-02 12:21:00,
2013-03-02 05:23:00,33.8,26.6,30.07,SW,225,4.0,4.7,75,0.00,,,0.00,WUHU216HW,2013-03-02 12:23:00,
2013-03-02 05:24:00,33.8,26.6,30.07,SW,225,5.4,5.4,75,0.00,,,0.00,WUHU216HW,2013-03-02 12:24:00,
2013-03-02 05:25:00,33.8,26.6,30.07,SW,225,5.8,5.8,75,0.00,,,0.00,WUHU216HW,2013-03-02 12:25:00,
2013-03-02 05:26:00,33.8,27.0,30.07,SW,225,4.7,6.0,76,0.00,,,0.00,WUHU216HW,2013-03-02 12:26:00,
2013-03-02 05:28:00,33.8,27.0,30.07,SSW,203,4.7,6.3,76,0.00,,,0.00,WUHU216HW,2013-03-02 12:28:00,
2013-03-02 05:29:00,33.8,27.0,30.06,SSW,203,4.0,6.3,76,0.00,,,0.00,WUHU216HW,2013-03-02 12:29:00,
2013-03-02 05:30:00,33.8,27.0,30.06,SSW,203,4.0,6.3,76,0.00,,,0.00,WUHU216HW,2013-03-02 12:30:00,
2013-03-02 05:31:00,33.8,27.0,30.07,WSW,248,6.5,6.5,76,0.00,,,0.00,WUHU216HW,2013-03-02 12:31:00,
2013-03-02 05:33:00,33.8,27.0,30.07,WSW,248,7.6,7.6,76,0.00,,,0.00,WUHU216HW,2013-03-02 12:33:00,
2013-03-02 05:35:00,34.0,27.2,30.07,West,270,7.4,8.1,76,0.00,,,0.00,WUHU216HW,2013-03-02 12:35:00,
2013-03-02 05:36:00,34.0,27.2,30.07,WSW,248,5.6,8.1,76,0.00,,,0.00,WUHU216HW,2013-03-02 12:36:00,
2013-03-02 05:38:00,34.2,27.4,30.07,WSW,248,7.4,8.1,76,0.00,,,0.00,WUHU216HW,2013-03-02 12:38:00,
2013-03-02 05:40:00,34.2,27.4,30.07,WSW,248,7.6,8.1,76,0.00,,,0.00,WUHU216HW,2013-03-02 12:40:00,
2013-03-02 05:41:00,34.2,27.4,30.07,WSW,248,6.9,8.1,76,0.00,,,0.00,WUHU216HW,2013-03-02 12:41:00,
2013-03-02 05:44:00,34.2,27.0,30.07,WSW,248,2.5,8.1,75,0.00,,,0.00,WUHU216HW,2013-03-02 12:44:00,
2013-03-02 05:45:00,34.2,27.0,30.07,WSW,248,2.2,8.1,75,0.00,,,0.00,WUHU216HW,2013-03-02 12:45:00,
2013-03-02 05:46:00,34.2,27.0,30.07,SW,225,2.2,8.1,75,0.00,,,0.00,WUHU216HW,2013-03-02 12:46:00,
2013-03-02 05:49:00,34.2,27.0,30.07,NW,315,2.5,7.8,75,0.00,,,0.00,WUHU216HW,2013-03-02 12:49:00,
2013-03-02 05:50:00,34.2,27.4,30.07,North,0,2.5,7.8,76,0.00,,,0.00,WUHU216HW,2013-03-02 12:50:00,
2013-03-02 05:51:00,34.2,27.4,30.07,North,0,4.3,6.7,76,0.00,,,0.00,WUHU216HW,2013-03-02 12:51:00,
2013-03-02 05:52:00,34.2,27.4,30.07,North,0,4.0,6.5,76,0.00,,,0.00,WUHU216HW,2013-03-02 12:52:00,
2013-03-02 05:55:00,34.2,27.4,30.07,ESE,113,1.1,5.4,76,0.00,,,0.00,WUHU216HW,2013-03-02 12:55:00,
2013-03-02 05:56:00,34.2,27.4,30.07,West,270,1.1,5.4,76,0.00,,,0.00,WUHU216HW,2013-03-02 12:56:00,
2013-03-02 05:57:00,34.2,27.4,30.07,West,270,1.1,5.4,76,0.00,,,0.00,WUHU216HW,2013-03-02 12:57:00,
2013-03-02 06:00:00,34.2,27.4,30.07,NNE,23,3.8,5.4,76,0.00,,,0.00,WUHU216HW,2013-03-02 13:00:00,
2013-03-02 06:01:00,34.2,27.4,30.07,NNE,23,2.2,5.4,76,0.00,,,0.00,WUHU216HW,2013-03-02 13:01:00,
2013-03-02 06:02:00,34.2,27.4,30.07,NNE,23,2.2,5.4,76,0.00,,,0.00,WUHU216HW,2013-03-02 13:02:00,
2013-03-02 06:05:00,34.2,27.4,30.07,West,270,1.6,4.9,76,0.00,,,0.00,WUHU216HW,2013-03-02 13:05:00,
2013-03-02 06:07:00,34.0,27.2,30.07,NW,315,1.8,4.9,76,0.00,,,0.00,WUHU216HW,2013-03-02 13:07:00,
2013-03-02 06:10:00,34.0,27.2,30.07,NNW,338,0.7,4.9,76,0.00,,,0.00,WUHU216HW,2013-03-02 13:10:00,
2013-03-02 06:11:00,34.0,27.2,30.07,NNW,338,0.9,3.4,76,0.00,,,0.00,WUHU216HW,2013-03-02 13:11:00,
2013-03-02 06:12:00,34.0,27.2,30.07,NNW,338,0.4,3.4,76,0.00,,,0.00,WUHU216HW,2013-03-02 13:12:00,
2013-03-02 06:15:00,34.0,27.2,30.07,WNW,293,4.7,4.7,76,0.00,,,0.00,WUHU216HW,2013-03-02 13:15:00,
2013-03-02 06:16:00,34.0,27.2,30.07,NNW,338,3.8,5.1,76,0.00,,,0.00,WUHU216HW,2013-03-02 13:16:00,
2013-03-02 06:17:00,34.0,27.2,30.07,NNW,338,1.6,5.1,76,0.00,,,0.00,WUHU216HW,2013-03-02 13:17:00,
2013-03-02 06:20:00,33.8,27.0,30.07,WSW,248,2.5,5.1,76,0.00,,,0.00,WUHU216HW,2013-03-02 13:20:00,
2013-03-02 06:21:00,33.8,27.0,30.07,WSW,248,2.7,5.1,76,0.00,,,0.00,WUHU216HW,2013-03-02 13:21:00,
2013-03-02 06:22:00,33.8,27.0,30.07,West,270,1.1,5.1,76,0.00,,,0.00,WUHU216HW,2013-03-02 13:22:00,
2013-03-02 06:26:00,33.5,26.3,30.06,WSW,248,3.1,3.8,75,0.00,,,0.00,WUHU216HW,2013-03-02 13:26:00,
2013-03-02 06:27:00,33.5,26.3,30.06,WSW,248,2.5,3.4,75,0.00,,,0.00,WUHU216HW,2013-03-02 13:27:00,
2013-03-02 06:31:00,33.1,26.0,30.06,West,270,1.8,3.4,75,0.00,,,0.00,WUHU216HW,2013-03-02 13:31:00,
2013-03-02 06:32:00,33.1,26.0,30.06,West,270,6.0,6.0,75,0.00,,,0.00,WUHU216HW,2013-03-02 13:32:00,
2013-03-02 06:36:00,32.8,25.7,30.06,SW,225,4.0,6.9,75,0.00,,,0.00,WUHU216HW,2013-03-02 13:36:00,
2013-03-02 06:37:00,32.8,25.7,30.06,SW,225,4.0,6.9,75,0.00,,,0.00,WUHU216HW,2013-03-02 13:37:00,
2013-03-02 06:41:00,32.6,25.8,30.06,SW,225,3.4,6.9,76,0.00,,,0.00,WUHU216HW,2013-03-02 13:41:00,
2013-03-02 06:42:00,32.6,25.8,30.06,SW,225,3.8,6.9,76,0.00,,,0.00,WUHU216HW,2013-03-02 13:42:00,
2013-03-02 06:46:00,32.4,25.7,30.06,WSW,248,2.2,6.0,76,0.00,,,0.00,WUHU216HW,2013-03-02 13:46:00,
2013-03-02 06:47:00,32.4,25.7,30.06,WSW,248,1.3,6.0,76,0.00,,,0.00,WUHU216HW,2013-03-02 13:47:00,
2013-03-02 06:48:00,32.4,25.7,30.06,WSW,248,4.0,6.0,76,0.00,,,0.00,WUHU216HW,2013-03-02 13:48:00,
2013-03-02 06:51:00,32.4,25.7,30.06,SSE,158,2.5,4.0,76,0.00,,,0.00,WUHU216HW,2013-03-02 13:51:00,
2013-03-02 06:52:00,32.4,25.7,30.06,SSE,158,1.6,4.0,76,0.00,,,0.00,WUHU216HW,2013-03-02 13:52:00,
2013-03-02 06:53:00,32.4,25.7,30.06,SSE,158,1.6,4.0,76,0.00,,,0.00,WUHU216HW,2013-03-02 13:53:00,
2013-03-02 06:56:00,32.6,25.8,30.05,WSW,248,2.2,5.6,76,0.00,,,0.00,WUHU216HW,2013-03-02 13:56:00,
2013-03-02 06:57:00,32.6,25.8,30.05,West,270,0.9,5.6,76,0.00,,,0.00,WUHU216HW,2013-03-02 13:57:00,
2013-03-02 06:58:00,32.6,25.8,30.05,WSW,248,0.0,5.6,76,0.00,,,0.00,WUHU216HW,2013-03-02 13:58:00,
2013-03-02 07:02:00,32.6,25.8,30.05,WSW,248,2.0,5.6,76,0.00,,,0.00,WUHU216HW,2013-03-02 14:02:00,
2013-03-02 07:03:00,32.6,25.8,30.05,WSW,248,2.7,5.6,76,0.00,,,0.00,WUHU216HW,2013-03-02 14:03:00,
2013-03-02 07:07:00,32.2,25.5,30.05,WSW,248,3.4,6.3,76,0.00,,,0.00,WUHU216HW,2013-03-02 14:07:00,
2013-03-02 07:08:00,32.2,25.5,30.05,WSW,248,2.5,6.3,76,0.00,,,0.00,WUHU216HW,2013-03-02 14:08:00,
2013-03-02 07:12:00,32.2,25.5,30.05,WSW,248,3.8,6.3,76,0.00,,,0.00,WUHU216HW,2013-03-02 14:12:00,
2013-03-02 07:13:00,32.2,25.5,30.05,WSW,248,3.6,6.3,76,0.00,,,0.00,WUHU216HW,2013-03-02 14:13:00,
2013-03-02 07:17:00,32.2,25.5,30.05,WSW,248,1.8,4.3,76,0.00,,,0.00,WUHU216HW,2013-03-02 14:17:00,
2013-03-02 07:18:00,32.2,25.5,30.05,SW,225,1.6,4.3,76,0.00,,,0.00,WUHU216HW,2013-03-02 14:18:00,
2013-03-02 07:22:00,32.4,25.7,30.05,South,180,1.8,4.0,76,0.00,,,0.00,WUHU216HW,2013-03-02 14:22:00,
2013-03-02 07:23:00,32.4,25.7,30.05,SE,135,2.0,3.8,76,0.00,,,0.00,WUHU216HW,2013-03-02 14:23:00,
2013-03-02 07:27:00,32.4,25.7,30.04,SW,225,2.7,3.4,76,0.00,,,0.00,WUHU216HW,2013-03-02 14:27:00,
2013-03-02 07:28:00,32.4,25.7,30.05,SW,225,3.6,3.6,76,0.00,,,0.00,WUHU216HW,2013-03-02 14:28:00,
2013-03-02 07:29:00,32.4,25.7,30.05,SW,225,5.4,5.4,76,0.00,,,0.00,WUHU216HW,2013-03-02 14:29:00,
2013-03-02 07:32:00,32.4,26.0,30.05,South,180,4.0,5.4,77,0.00,,,0.00,WUHU216HW,2013-03-02 14:32:00,
2013-03-02 07:33:00,32.4,26.0,30.05,SSW,203,3.4,5.4,77,0.00,,,0.00,WUHU216HW,2013-03-02 14:33:00,
2013-03-02 07:34:00,32.4,26.0,30.05,South,180,2.5,5.4,77,0.00,,,0.00,WUHU216HW,2013-03-02 14:34:00,
2013-03-02 07:37:00,32.6,26.2,30.04,SW,225,2.5,5.4,77,0.00,,,0.00,WUHU216HW,2013-03-02 14:37:00,
2013-03-02 07:38:00,32.6,26.2,30.05,SSW,203,1.8,5.4,77,0.00,,,0.00,WUHU216HW,2013-03-02 14:38:00,
2013-03-02 07:39:00,32.6,26.2,30.05,SSW,203,2.0,5.1,77,0.00,,,0.00,WUHU216HW,2013-03-02 14:39:00,
2013-03-02 07:42:00,32.6,26.2,30.05,SSW,203,3.4,4.0,77,0.00,,,0.00,WUHU216HW,2013-03-02 14:42:00,
2013-03-02 07:43:00,32.6,26.2,30.05,SSW,203,3.4,3.4,77,0.00,,,0.00,WUHU216HW,2013-03-02 14:43:00,
2013-03-02 07:44:00,32.8,26.3,30.04,SSW,203,2.2,3.4,77,0.00,,,0.00,WUHU216HW,2013-03-02 14:44:00,
2013-03-02 07:48:00,32.8,26.3,30.05,SSW,203,0.0,3.4,77,0.00,,,0.00,WUHU216HW,2013-03-02 14:48:00,
2013-03-02 07:49:00,32.9,26.5,30.05,WNW,293,1.3,3.4,77,0.00,,,0.00,WUHU216HW,2013-03-02 14:49:00,
2013-03-02 07:53:00,32.9,26.5,30.04,SSE,158,1.3,3.4,77,0.00,,,0.00,WUHU216HW,2013-03-02 14:53:00,
2013-03-02 07:54:00,33.1,26.6,30.04,SSE,158,1.1,2.9,77,0.00,,,0.00,WUHU216HW,2013-03-02 14:54:00,
2013-03-02 07:55:00,33.1,26.6,30.04,SW,225,2.5,2.5,77,0.00,,,0.00,WUHU216HW,2013-03-02 14:55:00,
2013-03-02 07:58:00,33.1,26.6,30.04,SW,225,2.5,4.9,77,0.00,,,0.00,WUHU216HW,2013-03-02 14:58:00,
2013-03-02 07:59:00,33.1,26.6,30.04,SSE,158,3.4,4.9,77,0.00,,,0.00,WUHU216HW,2013-03-02 14:59:00,
2013-03-02 08:00:00,33.1,26.6,30.04,SSE,158,3.4,4.9,77,0.00,,,0.00,WUHU216HW,2013-03-02 15:00:00,
2013-03-02 08:03:00,33.3,26.8,30.04,WSW,248,1.1,4.9,77,0.00,,,0.00,WUHU216HW,2013-03-02 15:03:00,
2013-03-02 08:04:00,33.3,27.1,30.04,West,270,1.8,4.9,78,0.00,,,0.00,WUHU216HW,2013-03-02 15:04:00,
2013-03-02 08:05:00,33.3,27.1,30.04,West,270,1.8,4.9,78,0.00,,,0.00,WUHU216HW,2013-03-02 15:05:00,
2013-03-02 08:08:00,33.3,27.1,30.04,SSW,203,1.1,3.4,78,0.00,,,0.00,WUHU216HW,2013-03-02 15:08:00,
2013-03-02 08:09:00,33.3,27.1,30.03,SSE,158,2.0,3.4,78,0.00,,,0.00,WUHU216HW,2013-03-02 15:09:00,
2013-03-02 08:10:00,33.5,27.0,30.03,SSE,158,2.5,3.1,77,0.00,,,0.00,WUHU216HW,2013-03-02 15:10:00,
2013-03-02 08:13:00,33.5,27.0,30.03,ESE,113,1.3,3.1,77,0.00,,,0.00,WUHU216HW,2013-03-02 15:13:00,
2013-03-02 08:14:00,33.5,27.0,30.03,East,90,1.8,3.1,77,0.00,,,0.00,WUHU216HW,2013-03-02 15:14:00,
2013-03-02 08:15:00,33.5,27.3,30.03,East,90,1.8,3.1,78,0.00,,,0.00,WUHU216HW,2013-03-02 15:15:00,
2013-03-02 08:18:00,33.7,27.8,30.04,NNW,338,0.9,3.1,79,0.00,,,0.00,WUHU216HW,2013-03-02 15:18:00,
2013-03-02 08:19:00,33.5,27.6,30.03,NE,45,1.1,3.1,79,0.00,,,0.00,WUHU216HW,2013-03-02 15:19:00,
2013-03-02 08:20:00,33.5,27.3,30.03,East,90,2.5,3.1,78,0.00,,,0.00,WUHU216HW,2013-03-02 15:20:00,
2013-03-02 08:23:00,33.5,27.3,30.03,East,90,1.1,3.6,78,0.00,,,0.00,WUHU216HW,2013-03-02 15:23:00,
2013-03-02 08:24:00,33.7,27.5,30.03,East,90,1.1,3.6,78,0.00,,,0.00,WUHU216HW,2013-03-02 15:24:00,
2013-03-02 08:25:00,33.7,27.5,30.04,NNW,338,1.1,3.6,78,0.00,,,0.00,WUHU216HW,2013-03-02 15:25:00,
2013-03-02 08:29:00,33.7,27.5,30.03,NE,45,1.1,3.6,78,0.00,,,0.00,WUHU216HW,2013-03-02 15:29:00,
2013-03-02 08:30:00,33.7,27.5,30.03,NE,45,0.0,3.6,78,0.00,,,0.00,WUHU216HW,2013-03-02 15:30:00,
2013-03-02 08:34:00,33.7,27.5,30.03,NW,315,0.4,1.3,78,0.00,,,0.00,WUHU216HW,2013-03-02 15:34:00,
2013-03-02 08:36:00,33.7,27.5,30.03,NW,315,1.1,1.3,78,0.00,,,0.00,WUHU216HW,2013-03-02 15:36:00,
2013-03-02 08:39:00,33.7,27.8,30.04,NW,315,2.5,3.8,79,0.00,,,0.00,WUHU216HW,2013-03-02 15:39:00,
2013-03-02 08:41:00,33.7,27.5,30.03,NNW,338,0.4,3.8,78,0.00,,,0.00,WUHU216HW,2013-03-02 15:41:00,
2013-03-02 08:44:00,33.7,27.5,30.03,WNW,293,2.5,3.8,78,0.00,,,0.00,WUHU216HW,2013-03-02 15:44:00,
2013-03-02 08:45:00,33.7,27.5,30.03,WNW,293,1.8,3.8,78,0.00,,,0.00,WUHU216HW,2013-03-02 15:45:00,
2013-03-02 08:46:00,33.7,27.5,30.03,WNW,293,1.3,3.8,78,0.00,,,0.00,WUHU216HW,2013-03-02 15:46:00,
2013-03-02 08:49:00,33.8,27.6,30.03,WNW,293,2.9,2.9,78,0.00,,,0.00,WUHU216HW,2013-03-02 15:49:00,
2013-03-02 08:50:00,33.8,27.9,30.03,WNW,293,4.7,5.1,79,0.00,,,0.00,WUHU216HW,2013-03-02 15:50:00,
2013-03-02 08:51:00,33.8,27.6,30.03,WNW,293,5.1,5.4,78,0.00,,,0.00,WUHU216HW,2013-03-02 15:51:00,
2013-03-02 08:54:00,33.8,27.6,30.03,WNW,293,0.7,5.4,78,0.00,,,0.00,WUHU216HW,2013-03-02 15:54:00,
2013-03-02 08:55:00,33.8,27.6,30.03,WNW,293,1.6,5.4,78,0.00,,,0.00,WUHU216HW,2013-03-02 15:55:00,
2013-03-02 08:56:00,33.8,27.6,30.03,WNW,293,4.0,5.4,78,0.00,,,0.00,WUHU216HW,2013-03-02 15:56:00,
2013-03-02 08:59:00,34.2,28.3,30.03,NW,315,3.8,5.4,79,0.00,,,0.00,WUHU216HW,2013-03-02 15:59:00,
2013-03-02 09:00:00,34.0,28.1,30.03,NW,315,3.4,5.4,79,0.00,,,0.00,WUHU216HW,2013-03-02 16:00:00,
2013-03-02 09:01:00,34.2,28.0,30.03,NW,315,2.5,5.1,78,0.00,,,0.00,WUHU216HW,2013-03-02 16:01:00,
2013-03-02 09:04:00,34.4,28.2,30.02,WNW,293,1.1,4.0,78,0.00,,,0.00,WUHU216HW,2013-03-02 16:04:00,
2013-03-02 09:05:00,34.4,28.2,30.02,WNW,293,0.9,4.0,78,0.00,,,0.00,WUHU216HW,2013-03-02 16:05:00,
2013-03-02 09:06:00,34.4,28.2,30.02,WNW,293,0.4,4.0,78,0.00,,,0.00,WUHU216HW,2013-03-02 16:06:00,
2013-03-02 09:09:00,34.6,28.4,30.02,NW,315,1.6,3.4,78,0.00,,,0.00,WUHU216HW,2013-03-02 16:09:00,
2013-03-02 09:10:00,34.6,28.4,30.02,NW,315,1.6,3.4,78,0.00,,,0.00,WUHU216HW,2013-03-02 16:10:00,
2013-03-02 09:11:00,34.6,28.4,30.02,NW,315,0.2,2.5,78,0.00,,,0.00,WUHU216HW,2013-03-02 16:11:00,
2013-03-02 09:14:00,34.9,28.4,30.02,NW,315,1.1,1.6,77,0.00,,,0.00,WUHU216HW,2013-03-02 16:14:00,
2013-03-02 09:15:00,34.9,28.4,30.02,NW,315,1.1,1.6,77,0.00,,,0.00,WUHU216HW,2013-03-02 16:15:00,
2013-03-02 09:16:00,34.9,28.4,30.02,NW,315,0.9,1.6,77,0.00,,,0.00,WUHU216HW,2013-03-02 16:16:00,
2013-03-02 09:19:00,34.9,28.1,30.02,North,0,1.1,1.6,76,0.00,,,0.00,WUHU216HW,2013-03-02 16:19:00,
2013-03-02 09:20:00,34.9,28.1,30.02,North,0,0.7,1.3,76,0.00,,,0.00,WUHU216HW,2013-03-02 16:20:00,
2013-03-02 09:21:00,35.1,28.3,30.02,North,0,0.9,1.3,76,0.00,,,0.00,WUHU216HW,2013-03-02 16:21:00,
2013-03-02 09:25:00,35.3,28.7,30.01,North,0,2.2,2.2,77,0.00,,,0.00,WUHU216HW,2013-03-02 16:25:00,
2013-03-02 09:26:00,35.3,29.1,30.01,NNW,338,2.0,2.2,78,0.00,,,0.00,WUHU216HW,2013-03-02 16:26:00,
2013-03-02 09:30:00,35.1,28.5,30.01,NNE,23,2.7,4.3,77,0.00,,,0.00,WUHU216HW,2013-03-02 16:30:00,
2013-03-02 09:31:00,35.1,28.5,30.01,NNE,23,2.2,4.3,77,0.00,,,0.00,WUHU216HW,2013-03-02 16:31:00,
2013-03-02 09:35:00,35.3,28.5,30.01,NNW,338,3.4,4.3,76,0.00,,,0.00,WUHU216HW,2013-03-02 16:35:00,
2013-03-02 09:36:00,35.3,28.5,30.01,North,0,1.8,4.3,76,0.00,,,0.00,WUHU216HW,2013-03-02 16:36:00,
2013-03-02 09:40:00,35.3,28.5,30.01,NW,315,3.4,4.3,76,0.00,,,0.00,WUHU216HW,2013-03-02 16:40:00,
2013-03-02 09:41:00,35.5,28.6,30.01,NW,315,4.5,4.5,76,0.00,,,0.00,WUHU216HW,2013-03-02 16:41:00,
2013-03-02 09:45:00,35.6,28.8,30.01,NW,315,2.9,4.5,76,0.00,,,0.00,WUHU216HW,2013-03-02 16:45:00,
2013-03-02 09:46:00,35.8,29.0,30.01,WNW,293,2.5,4.5,76,0.00,,,0.00,WUHU216HW,2013-03-02 16:46:00,
2013-03-02 09:50:00,36.0,28.8,30.00,NNW,338,1.8,4.5,75,0.00,,,0.00,WUHU216HW,2013-03-02 16:50:00,
2013-03-02 09:51:00,36.2,29.0,30.00,NNW,338,2.7,4.0,75,0.00,,,0.00,WUHU216HW,2013-03-02 16:51:00,
2013-03-02 09:55:00,36.5,29.0,30.00,NNW,338,2.5,3.8,74,0.00,,,0.00,WUHU216HW,2013-03-02 16:55:00,
2013-03-02 09:56:00,36.5,28.7,30.00,NNW,338,2.5,3.8,73,0.00,,,0.00,WUHU216HW,2013-03-02 16:56:00,
2013-03-02 09:57:00,36.5,28.7,30.00,NW,315,2.5,3.8,73,0.00,,,0.00,WUHU216HW,2013-03-02 16:57:00,
2013-03-02 10:00:00,36.9,29.1,30.00,NNW,338,1.3,3.8,73,0.00,,,0.00,WUHU216HW,2013-03-02 17:00:00,
2013-03-02 10:01:00,36.9,29.1,30.00,North,0,1.3,3.8,73,0.00,,,0.00,WUHU216HW,2013-03-02 17:01:00,
2013-03-02 10:03:00,37.1,29.3,30.00,North,0,1.1,3.4,73,0.00,,,0.00,WUHU216HW,2013-03-02 17:03:00,
2013-03-02 10:05:00,36.9,29.1,30.00,North,0,3.6,3.6,73,0.00,,,0.00,WUHU216HW,2013-03-02 17:05:00,
2013-03-02 10:06:00,36.9,29.1,30.00,NNE,23,4.3,4.3,73,0.00,,,0.00,WUHU216HW,2013-03-02 17:06:00,
2013-03-02 10:07:00,36.9,29.1,30.00,NE,45,2.9,4.3,73,0.00,,,0.00,WUHU216HW,2013-03-02 17:07:00,
2013-03-02 10:08:00,37.1,28.9,30.00,NE,45,2.5,4.3,72,0.00,,,0.00,WUHU216HW,2013-03-02 17:08:00,
2013-03-02 10:10:00,37.1,28.9,30.00,North,0,1.8,4.5,72,0.00,,,0.00,WUHU216HW,2013-03-02 17:10:00,
2013-03-02 10:11:00,37.1,29.3,30.00,North,0,3.4,4.5,73,0.00,,,0.00,WUHU216HW,2013-03-02 17:11:00,
2013-03-02 10:12:00,37.1,28.9,30.00,North,0,2.5,4.5,72,0.00,,,0.00,WUHU216HW,2013-03-02 17:12:00,
2013-03-02 10:13:00,37.1,28.6,30.00,North,0,1.8,4.5,71,0.00,,,0.00,WUHU216HW,2013-03-02 17:13:00,
2013-03-02 10:16:00,37.3,28.8,30.00,NNW,338,3.1,4.5,71,0.00,,,0.00,WUHU216HW,2013-03-02 17:16:00,
2013-03-02 10:17:00,37.4,29.3,30.00,NW,315,2.9,4.5,72,0.00,,,0.00,WUHU216HW,2013-03-02 17:17:00,
2013-03-02 10:18:00,37.4,29.0,30.00,NNW,338,1.8,4.5,71,0.00,,,0.00,WUHU216HW,2013-03-02 17:18:00,
2013-03-02 10:21:00,37.8,29.3,30.00,North,0,1.6,4.3,71,0.00,,,0.00,WUHU216HW,2013-03-02 17:21:00,
2013-03-02 10:22:00,38.0,29.4,30.00,North,0,4.0,4.3,71,0.00,,,0.00,WUHU216HW,2013-03-02 17:22:00,
2013-03-02 10:23:00,38.2,29.3,30.00,North,0,1.6,4.5,70,0.00,,,0.00,WUHU216HW,2013-03-02 17:23:00,
2013-03-02 10:26:00,38.0,28.7,30.00,North,0,0.4,4.5,69,0.00,,,0.00,WUHU216HW,2013-03-02 17:26:00,
2013-03-02 10:27:00,38.0,29.1,30.00,NNW,338,1.6,4.5,70,0.00,,,0.00,WUHU216HW,2013-03-02 17:27:00,
2013-03-02 10:28:00,38.2,29.3,30.00,NNE,23,2.0,4.5,70,0.00,,,0.00,WUHU216HW,2013-03-02 17:28:00,
2013-03-02 10:31:00,38.3,29.4,30.00,North,0,1.1,4.5,70,0.00,,,0.00,WUHU216HW,2013-03-02 17:31:00,
2013-03-02 10:32:00,38.3,29.4,30.00,North,0,1.8,4.5,70,0.00,,,0.00,WUHU216HW,2013-03-02 17:32:00,
2013-03-02 10:33:00,38.5,29.3,30.00,NNW,338,0.4,2.9,69,0.00,,,0.00,WUHU216HW,2013-03-02 17:33:00,
2013-03-02 10:36:00,38.5,29.3,30.00,NNW,338,2.2,2.5,69,0.00,,,0.00,WUHU216HW,2013-03-02 17:36:00,
2013-03-02 10:37:00,38.5,29.6,30.00,North,0,1.1,2.2,70,0.00,,,0.00,WUHU216HW,2013-03-02 17:37:00,
2013-03-02 10:38:00,38.5,29.6,30.00,NNW,338,2.0,2.2,70,0.00,,,0.00,WUHU216HW,2013-03-02 17:38:00,
2013-03-02 10:39:00,38.7,29.8,30.00,NNW,338,1.8,2.2,70,0.00,,,0.00,WUHU216HW,2013-03-02 17:39:00,
2013-03-02 10:41:00,39.1,29.4,30.00,North,0,1.8,2.7,68,0.00,,,0.00,WUHU216HW,2013-03-02 17:41:00,
2013-03-02 10:42:00,39.2,29.5,30.00,NNW,338,1.8,2.7,68,0.00,,,0.00,WUHU216HW,2013-03-02 17:42:00,
2013-03-02 10:43:00,39.2,29.5,30.00,NNW,338,1.8,2.7,68,0.00,,,0.00,WUHU216HW,2013-03-02 17:43:00,
2013-03-02 10:44:00,39.2,29.1,29.99,NNW,338,1.8,2.7,67,0.00,,,0.00,WUHU216HW,2013-03-02 17:44:00,
2013-03-02 10:46:00,39.4,29.3,30.00,NW,315,1.6,2.7,67,0.00,,,0.00,WUHU216HW,2013-03-02 17:46:00,
2013-03-02 10:47:00,39.4,29.3,29.99,NW,315,0.9,2.7,67,0.00,,,0.00,WUHU216HW,2013-03-02 17:47:00,
2013-03-02 10:48:00,39.6,29.4,29.99,North,0,0.9,2.7,67,0.00,,,0.00,WUHU216HW,2013-03-02 17:48:00,
2013-03-02 10:49:00,39.8,29.6,29.99,NNW,338,1.8,2.7,67,0.00,,,0.00,WUHU216HW,2013-03-02 17:49:00,
2013-03-02 10:51:00,40.0,29.4,29.99,North,0,1.1,2.0,66,0.00,,,0.00,WUHU216HW,2013-03-02 17:51:00,
2013-03-02 10:52:00,40.0,29.8,29.99,North,0,2.2,3.1,67,0.00,,,0.00,WUHU216HW,2013-03-02 17:52:00,
2013-03-02 10:53:00,40.0,29.8,29.99,North,0,1.8,3.1,67,0.00,,,0.00,WUHU216HW,2013-03-02 17:53:00,
2013-03-02 10:54:00,40.1,30.0,29.99,North,0,1.8,3.1,67,0.00,,,0.00,WUHU216HW,2013-03-02 17:54:00,
2013-03-02 10:56:00,40.3,30.2,29.99,West,270,2.5,3.1,67,0.00,,,0.00,WUHU216HW,2013-03-02 17:56:00,
2013-03-02 10:57:00,40.5,30.3,29.99,NW,315,2.2,3.1,67,0.00,,,0.00,WUHU216HW,2013-03-02 17:57:00,
2013-03-02 10:58:00,40.7,30.5,29.99,NW,315,2.0,3.1,67,0.00,,,0.00,WUHU216HW,2013-03-02 17:58:00,
2013-03-02 10:59:00,41.0,30.5,29.99,NNW,338,0.9,3.1,66,0.00,,,0.00,WUHU216HW,2013-03-02 17:59:00,
2013-03-02 11:02:00,41.4,30.5,29.99,NE,45,2.2,2.5,65,0.00,,,0.00,WUHU216HW,2013-03-02 18:02:00,
2013-03-02 11:03:00,41.8,30.4,29.99,East,90,0.2,2.5,64,0.00,,,0.00,WUHU216HW,2013-03-02 18:03:00,
2013-03-02 11:04:00,41.9,30.6,29.98,NNE,23,1.3,2.5,64,0.00,,,0.00,WUHU216HW,2013-03-02 18:04:00,
2013-03-02 11:07:00,42.3,30.6,29.99,NNW,338,0.7,2.5,63,0.00,,,0.00,WUHU216HW,2013-03-02 18:07:00,
2013-03-02 11:08:00,42.5,30.7,29.99,North,0,1.6,2.9,63,0.00,,,0.00,WUHU216HW,2013-03-02 18:08:00,
2013-03-02 11:09:00,42.7,30.5,29.99,North,0,1.3,2.9,62,0.00,,,0.00,WUHU216HW,2013-03-02 18:09:00,
2013-03-02 11:12:00,42.8,30.2,29.98,NE,45,1.8,2.9,61,0.00,,,0.00,WUHU216HW,2013-03-02 18:12:00,
2013-03-02 11:14:00,43.0,30.9,29.98,East,90,1.6,2.9,62,0.00,,,0.00,WUHU216HW,2013-03-02 18:14:00,
2013-03-02 11:17:00,43.7,32.0,29.98,ESE,113,1.1,2.9,63,0.00,,,0.00,WUHU216HW,2013-03-02 18:17:00,
2013-03-02 11:19:00,44.3,31.3,29.98,NNE,23,1.6,2.5,60,0.00,,,0.00,WUHU216HW,2013-03-02 18:19:00,
2013-03-02 11:22:00,44.8,30.5,29.98,North,0,0.4,2.5,57,0.00,,,0.00,WUHU216HW,2013-03-02 18:22:00,
2013-03-02 11:24:00,45.0,31.6,29.98,SW,225,1.6,2.0,59,0.00,,,0.00,WUHU216HW,2013-03-02 18:24:00,
2013-03-02 11:27:00,45.4,31.4,29.97,North,0,2.7,2.7,58,0.00,,,0.00,WUHU216HW,2013-03-02 18:27:00,
2013-03-02 11:29:00,45.5,30.7,29.97,North,0,0.9,2.7,56,0.00,,,0.00,WUHU216HW,2013-03-02 18:29:00,
2013-03-02 11:30:00,45.5,31.1,29.97,NW,315,0.2,2.7,57,0.00,,,0.00,WUHU216HW,2013-03-02 18:30:00,
2013-03-02 11:32:00,45.7,31.3,29.97,East,90,3.1,3.1,57,0.00,,,0.00,WUHU216HW,2013-03-02 18:32:00,
2013-03-02 11:34:00,46.1,31.6,29.97,SE,135,1.8,3.1,57,0.00,,,0.00,WUHU216HW,2013-03-02 18:34:00,
2013-03-02 11:35:00,46.1,32.0,29.97,South,180,1.8,3.1,58,0.00,,,0.00,WUHU216HW,2013-03-02 18:35:00,
2013-03-02 11:37:00,46.4,32.9,29.97,NNW,338,0.4,3.1,59,0.00,,,0.00,WUHU216HW,2013-03-02 18:37:00,
2013-03-02 11:38:00,46.8,33.2,29.97,NNW,338,0.4,3.1,59,0.00,,,0.00,WUHU216HW,2013-03-02 18:38:00,
2013-03-02 11:39:00,47.3,34.2,29.97,ESE,113,1.8,3.1,60,0.00,,,0.00,WUHU216HW,2013-03-02 18:39:00,
2013-03-02 11:40:00,47.5,33.9,29.97,ESE,113,4.0,4.0,59,0.00,,,0.00,WUHU216HW,2013-03-02 18:40:00,
2013-03-02 11:42:00,48.1,33.5,29.97,SE,135,3.1,4.3,57,0.00,,,0.00,WUHU216HW,2013-03-02 18:42:00,
2013-03-02 11:43:00,48.1,33.5,29.97,SE,135,3.1,4.3,57,0.00,,,0.00,WUHU216HW,2013-03-02 18:43:00,
2013-03-02 11:44:00,48.4,32.1,29.97,ENE,68,0.4,4.3,53,0.00,,,0.00,WUHU216HW,2013-03-02 18:44:00,
2013-03-02 11:45:00,48.4,32.1,29.97,NNE,23,1.8,4.3,53,0.00,,,0.00,WUHU216HW,2013-03-02 18:45:00,
2013-03-02 11:48:00,48.2,31.9,29.97,ENE,68,0.9,4.3,53,0.00,,,0.00,WUHU216HW,2013-03-02 18:48:00,
2013-03-02 11:49:00,48.6,33.1,29.97,SE,135,2.0,4.3,55,0.00,,,0.00,WUHU216HW,2013-03-02 18:49:00,
2013-03-02 11:50:00,48.6,33.1,29.97,ESE,113,1.8,4.3,55,0.00,,,0.00,WUHU216HW,2013-03-02 18:50:00,
2013-03-02 11:53:00,49.1,33.1,29.96,East,90,2.7,4.7,54,0.00,,,0.00,WUHU216HW,2013-03-02 18:53:00,
2013-03-02 11:55:00,49.3,32.9,29.97,East,90,1.1,4.7,53,0.00,,,0.00,WUHU216HW,2013-03-02 18:55:00,
2013-03-02 11:58:00,49.7,34.1,29.96,South,180,1.6,4.7,55,0.00,,,0.00,WUHU216HW,2013-03-02 18:58:00,
2013-03-02 12:00:00,50.2,34.2,29.96,ESE,113,2.0,4.7,54,0.00,,,0.00,WUHU216HW,2013-03-02 19:00:00,
2013-03-02 12:03:00,51.1,35.0,29.96,South,180,1.8,4.5,54,0.00,,,0.00,WUHU216HW,2013-03-02 19:03:00,
2013-03-02 12:05:00,51.7,34.6,29.96,SW,225,2.7,4.5,52,0.00,,,0.00,WUHU216HW,2013-03-02 19:05:00,
2013-03-02 12:06:00,51.8,34.7,29.96,SSW,203,3.4,4.5,52,0.00,,,0.00,WUHU216HW,2013-03-02 19:06:00,
2013-03-02 12:08:00,52.4,34.3,29.96,SSE,158,8.3,8.3,50,0.00,,,0.00,WUHU216HW,2013-03-02 19:08:00,
2013-03-02 12:10:00,52.7,34.1,29.96,SE,135,5.1,8.3,49,0.00,,,0.00,WUHU216HW,2013-03-02 19:10:00,
2013-03-02 12:11:00,52.9,34.3,29.96,SE,135,8.5,8.5,49,0.00,,,0.00,WUHU216HW,2013-03-02 19:11:00,
2013-03-02 12:13:00,52.9,33.1,29.96,SSE,158,8.3,9.8,47,0.00,,,0.00,WUHU216HW,2013-03-02 19:13:00,
2013-03-02 12:14:00,52.9,32.6,29.95,SSE,158,7.4,9.8,46,0.00,,,0.00,WUHU216HW,2013-03-02 19:14:00,
2013-03-02 12:15:00,52.9,32.6,29.96,SE,135,6.3,9.8,46,0.00,,,0.00,WUHU216HW,2013-03-02 19:15:00,
2013-03-02 12:16:00,52.9,32.6,29.96,South,180,3.6,9.8,46,0.00,,,0.00,WUHU216HW,2013-03-02 19:16:00,
2013-03-02 12:18:00,53.1,32.8,29.95,South,180,5.4,9.8,46,0.00,,,0.00,WUHU216HW,2013-03-02 19:18:00,
2013-03-02 12:19:00,53.1,33.3,29.95,South,180,4.3,9.8,47,0.00,,,0.00,WUHU216HW,2013-03-02 19:19:00,
2013-03-02 12:20:00,53.1,33.3,29.95,SSE,158,4.3,9.8,47,0.00,,,0.00,WUHU216HW,2013-03-02 19:20:00,
2013-03-02 12:21:00,53.3,33.0,29.95,SSE,158,6.9,9.8,46,0.00,,,0.00,WUHU216HW,2013-03-02 19:21:00,
2013-03-02 12:23:00,53.6,33.2,29.95,SSW,203,4.0,8.3,46,0.00,,,0.00,WUHU216HW,2013-03-02 19:23:00,
2013-03-02 12:24:00,53.6,33.2,29.95,SE,135,4.0,8.3,46,0.00,,,0.00,WUHU216HW,2013-03-02 19:24:00,
2013-03-02 12:25:00,53.8,33.4,29.95,SSE,158,7.2,8.3,46,0.00,,,0.00,WUHU216HW,2013-03-02 19:25:00,
2013-03-02 12:26:00,53.8,33.4,29.95,SE,135,6.5,8.5,46,0.00,,,0.00,WUHU216HW,2013-03-02 19:26:00,
2013-03-02 12:28:00,54.0,33.6,29.95,SE,135,5.6,8.5,46,0.00,,,0.00,WUHU216HW,2013-03-02 19:28:00,
2013-03-02 12:29:00,54.0,33.0,29.95,SE,135,6.9,8.5,45,0.00,,,0.00,WUHU216HW,2013-03-02 19:29:00,
2013-03-02 12:30:00,54.2,33.8,29.95,SSE,158,6.7,8.5,46,0.00,,,0.00,WUHU216HW,2013-03-02 19:30:00,
2013-03-02 12:31:00,54.2,33.1,29.95,SSE,158,6.7,8.5,45,0.00,,,0.00,WUHU216HW,2013-03-02 19:31:00,
2013-03-02 12:33:00,54.4,32.8,29.95,SSE,158,5.6,8.5,44,0.00,,,0.00,WUHU216HW,2013-03-02 19:33:00,
2013-03-02 12:34:00,54.2,33.1,29.95,SE,135,6.5,8.5,45,0.00,,,0.00,WUHU216HW,2013-03-02 19:34:00,
2013-03-02 12:35:00,54.2,32.0,29.95,SE,135,6.9,8.5,43,0.00,,,0.00,WUHU216HW,2013-03-02 19:35:00,
2013-03-02 12:36:00,54.2,32.6,29.95,SSE,158,6.3,8.5,44,0.00,,,0.00,WUHU216HW,2013-03-02 19:36:00,
2013-03-02 12:39:00,54.2,32.6,29.95,ESE,113,6.9,8.5,44,0.00,,,0.00,WUHU216HW,2013-03-02 19:39:00,
2013-03-02 12:40:00,54.2,32.6,29.95,SE,135,5.8,8.3,44,0.00,,,0.00,WUHU216HW,2013-03-02 19:40:00,
2013-03-02 12:41:00,54.2,32.0,29.94,ESE,113,7.6,10.1,43,0.00,,,0.00,WUHU216HW,2013-03-02 19:41:00,
2013-03-02 12:44:00,54.4,32.2,29.94,SSE,158,7.6,10.1,43,0.00,,,0.00,WUHU216HW,2013-03-02 19:44:00,
2013-03-02 12:45:00,54.4,32.8,29.94,SSE,158,5.1,10.1,44,0.00,,,0.00,WUHU216HW,2013-03-02 19:45:00,
2013-03-02 12:46:00,54.5,33.0,29.94,SE,135,5.4,10.1,44,0.00,,,0.00,WUHU216HW,2013-03-02 19:46:00,
2013-03-02 12:49:00,54.9,32.7,29.94,SE,135,6.3,10.1,43,0.00,,,0.00,WUHU216HW,2013-03-02 19:49:00,
2013-03-02 12:50:00,55.1,33.4,29.94,South,180,4.9,10.1,44,0.00,,,0.00,WUHU216HW,2013-03-02 19:50:00,
2013-03-02 12:52:00,55.1,33.4,29.94,SE,135,4.3,8.5,44,0.00,,,0.00,WUHU216HW,2013-03-02 19:52:00,
2013-03-02 12:54:00,55.4,33.2,29.94,ESE,113,5.6,7.6,43,0.00,,,0.00,WUHU216HW,2013-03-02 19:54:00,
2013-03-02 12:55:00,55.6,33.3,29.93,SE,135,4.7,7.6,43,0.00,,,0.00,WUHU216HW,2013-03-02 19:55:00,
2013-03-02 12:56:00,55.6,33.3,29.93,SE,135,5.4,7.6,43,0.00,,,0.00,WUHU216HW,2013-03-02 19:56:00,
2013-03-02 12:57:00,55.8,33.5,29.93,SE,135,6.9,7.6,43,0.00,,,0.00,WUHU216HW,2013-03-02 19:57:00,
2013-03-02 12:59:00,56.2,34.4,29.94,SSE,158,4.7,7.4,44,0.00,,,0.00,WUHU216HW,2013-03-02 19:59:00,
2013-03-02 13:00:00,56.2,34.4,29.94,SE,135,4.7,7.4,44,0.00,,,0.00,WUHU216HW,2013-03-02 20:00:00,
2013-03-02 13:01:00,56.3,34.6,29.93,SSE,158,3.6,7.4,44,0.00,,,0.00,WUHU216HW,2013-03-02 20:01:00,
2013-03-02 13:02:00,56.5,34.2,29.92,SSE,158,5.8,7.4,43,0.00,,,0.00,WUHU216HW,2013-03-02 20:02:00,
2013-03-02 13:04:00,56.7,34.4,29.92,SSE,158,4.3,6.9,43,0.00,,,0.00,WUHU216HW,2013-03-02 20:04:00,
2013-03-02 13:05:00,56.9,34.5,29.92,SSE,158,3.4,6.9,43,0.00,,,0.00,WUHU216HW,2013-03-02 20:05:00,
2013-03-02 13:06:00,57.1,34.7,29.92,SSE,158,4.5,6.9,43,0.00,,,0.00,WUHU216HW,2013-03-02 20:06:00,
2013-03-02 13:07:00,57.2,34.8,29.92,SSE,158,4.0,6.9,43,0.00,,,0.00,WUHU216HW,2013-03-02 20:07:00,
2013-03-02 13:10:00,57.4,34.5,29.92,South,180,4.0,6.3,42,0.00,,,0.00,WUHU216HW,2013-03-02 20:10:00,
2013-03-02 13:11:00,57.4,34.5,29.92,South,180,3.1,6.3,42,0.00,,,0.00,WUHU216HW,2013-03-02 20:11:00,
2013-03-02 13:12:00,57.2,33.7,29.92,South,180,4.0,6.3,41,0.00,,,0.00,WUHU216HW,2013-03-02 20:12:00,
2013-03-02 13:15:00,56.9,33.9,29.92,South,180,3.6,5.6,42,0.00,,,0.00,WUHU216HW,2013-03-02 20:15:00,
2013-03-02 13:16:00,56.9,33.9,29.92,SSW,203,3.1,5.6,42,0.00,,,0.00,WUHU216HW,2013-03-02 20:16:00,
2013-03-02 13:17:00,56.5,34.2,29.92,SSW,203,2.5,5.1,43,0.00,,,0.00,WUHU216HW,2013-03-02 20:17:00,
2013-03-02 13:20:00,56.2,33.3,29.91,SSW,203,3.8,4.7,42,0.00,,,0.00,WUHU216HW,2013-03-02 20:20:00,
2013-03-02 13:21:00,56.0,33.7,29.91,SW,225,4.3,4.7,43,0.00,,,0.00,WUHU216HW,2013-03-02 20:21:00,
2013-03-02 13:22:00,56.0,33.7,29.91,SW,225,2.5,4.7,43,0.00,,,0.00,WUHU216HW,2013-03-02 20:22:00,
2013-03-02 13:25:00,55.6,33.3,29.90,WSW,248,2.9,4.3,43,0.00,,,0.00,WUHU216HW,2013-03-02 20:25:00,
2013-03-02 13:26:00,55.6,32.8,29.90,WSW,248,2.0,4.3,42,0.00,,,0.00,WUHU216HW,2013-03-02 20:26:00,
2013-03-02 13:27:00,55.6,32.8,29.90,West,270,2.9,4.3,42,0.00,,,0.00,WUHU216HW,2013-03-02 20:27:00,
2013-03-02 13:30:00,54.5,32.4,29.90,WSW,248,3.1,4.3,43,0.00,,,0.00,WUHU216HW,2013-03-02 20:30:00,
2013-03-02 13:31:00,54.4,32.2,29.90,WSW,248,2.7,3.8,43,0.00,,,0.00,WUHU216HW,2013-03-02 20:31:00,
2013-03-02 13:32:00,54.4,32.2,29.90,WSW,248,2.7,3.8,43,0.00,,,0.00,WUHU216HW,2013-03-02 20:32:00,
2013-03-02 13:35:00,53.5,32.0,29.90,West,270,1.1,3.8,44,0.00,,,0.00,WUHU216HW,2013-03-02 20:35:00,
2013-03-02 13:36:00,53.5,32.5,29.90,West,270,0.9,3.8,45,0.00,,,0.00,WUHU216HW,2013-03-02 20:36:00,
2013-03-02 13:37:00,53.5,32.5,29.90,WSW,248,1.1,3.8,45,0.00,,,0.00,WUHU216HW,2013-03-02 20:37:00,
2013-03-02 13:41:00,53.1,31.6,29.90,West,270,2.9,3.1,44,0.00,,,0.00,WUHU216HW,2013-03-02 20:41:00,
2013-03-02 13:42:00,52.9,31.5,29.90,West,270,3.1,3.4,44,0.00,,,0.00,WUHU216HW,2013-03-02 20:42:00,
2013-03-02 13:43:00,52.7,31.3,29.90,WNW,293,3.4,3.4,44,0.00,,,0.00,WUHU216HW,2013-03-02 20:43:00,
2013-03-02 13:46:00,52.4,31.0,29.90,West,270,2.5,3.6,44,0.00,,,0.00,WUHU216HW,2013-03-02 20:46:00,
2013-03-02 13:47:00,52.4,31.0,29.90,WNW,293,2.9,3.6,44,0.00,,,0.00,WUHU216HW,2013-03-02 20:47:00,
2013-03-02 13:48:00,52.4,30.4,29.90,WNW,293,4.0,4.0,43,0.00,,,0.00,WUHU216HW,2013-03-02 20:48:00,
2013-03-02 13:51:00,51.7,30.3,29.90,NW,315,4.0,4.7,44,0.00,,,0.00,WUHU216HW,2013-03-02 20:51:00,
2013-03-02 13:52:00,51.5,30.2,29.90,WNW,293,4.5,4.7,44,0.00,,,0.00,WUHU216HW,2013-03-02 20:52:00,
2013-03-02 13:55:00,51.3,30.6,29.90,WNW,293,3.6,4.7,45,0.00,,,0.00,WUHU216HW,2013-03-02 20:55:00,
2013-03-02 13:56:00,51.3,30.6,29.90,West,270,4.3,5.4,45,0.00,,,0.00,WUHU216HW,2013-03-02 20:56:00,
2013-03-02 13:57:00,51.3,30.6,29.90,West,270,4.9,5.4,45,0.00,,,0.00,WUHU216HW,2013-03-02 20:57:00,
2013-03-02 14:01:00,50.9,30.2,29.90,West,270,4.7,5.6,45,0.00,,,0.00,WUHU216HW,2013-03-02 21:01:00,
2013-03-02 14:02:00,51.1,31.0,29.90,West,270,5.6,5.6,46,0.00,,,0.00,WUHU216HW,2013-03-02 21:02:00,
2013-03-02 14:06:00,51.1,31.0,29.90,West,270,4.3,5.6,46,0.00,,,0.00,WUHU216HW,2013-03-02 21:06:00,
2013-03-02 14:07:00,51.1,31.0,29.90,WNW,293,3.4,5.6,46,0.00,,,0.00,WUHU216HW,2013-03-02 21:07:00,
2013-03-02 14:11:00,51.3,31.7,29.90,NW,315,2.9,5.6,47,0.00,,,0.00,WUHU216HW,2013-03-02 21:11:00,
2013-03-02 14:12:00,51.3,31.2,29.90,West,270,3.6,5.4,46,0.00,,,0.00,WUHU216HW,2013-03-02 21:12:00,
2013-03-02 14:16:00,51.1,30.4,29.90,West,270,6.3,7.2,45,0.00,,,0.00,WUHU216HW,2013-03-02 21:16:00,
2013-03-02 14:17:00,51.1,30.4,29.90,West,270,6.0,7.2,45,0.00,,,0.00,WUHU216HW,2013-03-02 21:17:00,
2013-03-02 14:21:00,50.9,31.3,29.90,WSW,248,3.1,7.2,47,0.00,,,0.00,WUHU216HW,2013-03-02 21:21:00,
2013-03-02 14:22:00,51.1,31.0,29.90,WSW,248,4.3,7.2,46,0.00,,,0.00,WUHU216HW,2013-03-02 21:22:00,
2013-03-02 14:26:00,51.1,30.4,29.90,NW,315,3.6,6.3,45,0.00,,,0.00,WUHU216HW,2013-03-02 21:26:00,
2013-03-02 14:27:00,51.3,30.6,29.90,NW,315,4.9,6.3,45,0.00,,,0.00,WUHU216HW,2013-03-02 21:27:00,
2013-03-02 14:31:00,51.1,31.0,29.90,NNW,338,5.6,6.7,46,0.00,,,0.00,WUHU216HW,2013-03-02 21:31:00,
2013-03-02 14:32:00,51.1,31.0,29.90,NW,315,4.0,6.7,46,0.00,,,0.00,WUHU216HW,2013-03-02 21:32:00,
2013-03-02 14:36:00,51.1,30.4,29.90,West,270,4.7,6.7,45,0.00,,,0.00,WUHU216HW,2013-03-02 21:36:00,
2013-03-02 14:37:00,51.3,31.2,29.90,West,270,3.4,6.7,46,0.00,,,0.00,WUHU216HW,2013-03-02 21:37:00,
2013-03-02 14:41:00,51.5,30.7,29.90,WNW,293,3.4,5.6,45,0.00,,,0.00,WUHU216HW,2013-03-02 21:41:00,
2013-03-02 14:42:00,51.5,30.7,29.90,WNW,293,4.9,5.4,45,0.00,,,0.00,WUHU216HW,2013-03-02 21:42:00,
2013-03-02 14:43:00,51.5,30.7,29.90,West,270,4.3,5.4,45,0.00,,,0.00,WUHU216HW,2013-03-02 21:43:00,
2013-03-02 14:46:00,51.7,30.3,29.89,NW,315,3.6,5.4,44,0.00,,,0.00,WUHU216HW,2013-03-02 21:46:00,
2013-03-02 14:47:00,51.8,31.1,29.89,West,270,5.8,5.8,45,0.00,,,0.00,WUHU216HW,2013-03-02 21:47:00,
2013-03-02 14:48:00,51.8,31.1,29.89,West,270,4.7,5.8,45,0.00,,,0.00,WUHU216HW,2013-03-02 21:48:00,
2013-03-02 14:51:00,52.2,32.0,29.89,WSW,248,5.4,6.9,46,0.00,,,0.00,WUHU216HW,2013-03-02 21:51:00,
2013-03-02 14:53:00,52.6,32.2,29.89,WSW,248,3.1,6.9,46,0.00,,,0.00,WUHU216HW,2013-03-02 21:53:00,
2013-03-02 14:56:00,53.1,32.8,29.89,WSW,248,4.7,6.9,46,0.00,,,0.00,WUHU216HW,2013-03-02 21:56:00,
2013-03-02 14:58:00,53.5,33.0,29.89,WSW,248,9.8,9.8,46,0.00,,,0.00,WUHU216HW,2013-03-02 21:58:00,
2013-03-02 15:01:00,53.3,31.8,29.89,WSW,248,5.6,9.8,44,0.00,,,0.00,WUHU216HW,2013-03-02 22:01:00,
2013-03-02 15:03:00,53.3,32.3,29.89,West,270,3.6,9.8,45,0.00,,,0.00,WUHU216HW,2013-03-02 22:03:00,
2013-03-02 15:06:00,53.3,31.8,29.89,West,270,4.0,9.8,44,0.00,,,0.00,WUHU216HW,2013-03-02 22:06:00,
2013-03-02 15:08:00,53.3,31.8,29.89,West,270,2.5,9.8,44,0.00,,,0.00,WUHU216HW,2013-03-02 22:08:00,
2013-03-02 15:09:00,53.3,31.8,29.89,West,270,1.8,9.8,44,0.00,,,0.00,WUHU216HW,2013-03-02 22:09:00,
2013-03-02 15:12:00,53.5,32.5,29.88,WSW,248,4.3,5.4,45,0.00,,,0.00,WUHU216HW,2013-03-02 22:12:00,
2013-03-02 15:13:00,53.5,32.0,29.88,West,270,1.8,5.4,44,0.00,,,0.00,WUHU216HW,2013-03-02 22:13:00,
2013-03-02 15:14:00,53.5,32.0,29.88,WSW,248,1.8,5.1,44,0.00,,,0.00,WUHU216HW,2013-03-02 22:14:00,
2013-03-02 15:17:00,53.6,32.1,29.88,North,0,2.5,4.7,44,0.00,,,0.00,WUHU216HW,2013-03-02 22:17:00,
2013-03-02 15:18:00,53.5,30.9,29.88,North,0,1.8,4.7,42,0.00,,,0.00,WUHU216HW,2013-03-02 22:18:00,
2013-03-02 15:19:00,53.3,30.7,29.88,North,0,1.1,4.7,42,0.00,,,0.00,WUHU216HW,2013-03-02 22:19:00,
2013-03-02 15:22:00,53.1,31.1,29.88,NW,315,0.4,4.3,43,0.00,,,0.00,WUHU216HW,2013-03-02 22:22:00,
2013-03-02 15:23:00,53.1,31.6,29.88,WSW,248,1.6,3.6,44,0.00,,,0.00,WUHU216HW,2013-03-02 22:23:00,
2013-03-02 15:24:00,53.1,31.6,29.88,West,270,1.3,3.6,44,0.00,,,0.00,WUHU216HW,2013-03-02 22:24:00,
2013-03-02 15:27:00,53.1,31.6,29.88,NW,315,0.4,2.7,44,0.00,,,0.00,WUHU216HW,2013-03-02 22:27:00,
2013-03-02 15:28:00,52.9,31.5,29.88,NW,315,0.0,2.5,44,0.00,,,0.00,WUHU216HW,2013-03-02 22:28:00,
2013-03-02 15:29:00,53.1,31.6,29.88,NW,315,0.0,2.5,44,0.00,,,0.00,WUHU216HW,2013-03-02 22:29:00,
2013-03-02 15:32:00,53.3,32.3,29.88,WNW,293,0.4,2.2,45,0.00,,,0.00,WUHU216HW,2013-03-02 22:32:00,
2013-03-02 15:33:00,53.3,32.3,29.88,WSW,248,1.8,2.2,45,0.00,,,0.00,WUHU216HW,2013-03-02 22:33:00,
2013-03-02 15:34:00,53.3,32.3,29.88,WSW,248,2.5,2.5,45,0.00,,,0.00,WUHU216HW,2013-03-02 22:34:00,
2013-03-02 15:37:00,53.3,31.8,29.88,NW,315,1.8,2.5,44,0.00,,,0.00,WUHU216HW,2013-03-02 22:37:00,
2013-03-02 15:39:00,53.3,32.3,29.88,NW,315,3.1,3.1,45,0.00,,,0.00,WUHU216HW,2013-03-02 22:39:00,
2013-03-02 15:40:00,53.3,32.3,29.88,NNW,338,2.7,3.1,45,0.00,,,0.00,WUHU216HW,2013-03-02 22:40:00,
2013-03-02 15:42:00,53.1,31.6,29.88,NNW,338,2.0,3.1,44,0.00,,,0.00,WUHU216HW,2013-03-02 22:42:00,
2013-03-02 15:44:00,53.1,31.6,29.88,NNW,338,2.5,3.1,44,0.00,,,0.00,WUHU216HW,2013-03-02 22:44:00,
2013-03-02 15:45:00,52.9,31.5,29.88,NNW,338,1.8,3.1,44,0.00,,,0.00,WUHU216HW,2013-03-02 22:45:00,
2013-03-02 15:47:00,52.9,32.1,29.87,NNE,23,1.8,3.1,45,0.00,,,0.00,WUHU216HW,2013-03-02 22:47:00,
2013-03-02 15:49:00,52.7,31.3,29.87,North,0,1.8,3.1,44,0.00,,,0.00,WUHU216HW,2013-03-02 22:49:00,
2013-03-02 15:50:00,52.7,31.9,29.87,NNW,338,1.8,3.1,45,0.00,,,0.00,WUHU216HW,2013-03-02 22:50:00,
2013-03-02 15:53:00,52.9,32.1,29.87,NNW,338,1.3,2.5,45,0.00,,,0.00,WUHU216HW,2013-03-02 22:53:00,
2013-03-02 15:54:00,52.7,31.9,29.87,NNW,338,0.7,2.5,45,0.00,,,0.00,WUHU216HW,2013-03-02 22:54:00,
2013-03-02 15:55:00,52.9,32.1,29.87,North,0,1.3,1.8,45,0.00,,,0.00,WUHU216HW,2013-03-02 22:55:00,
2013-03-02 15:58:00,52.9,32.1,29.87,North,0,1.6,2.5,45,0.00,,,0.00,WUHU216HW,2013-03-02 22:58:00,
2013-03-02 15:59:00,52.9,31.5,29.86,North,0,1.3,2.5,44,0.00,,,0.00,WUHU216HW,2013-03-02 22:59:00,
2013-03-02 16:00:00,52.9,31.5,29.86,North,0,0.7,2.5,44,0.00,,,0.00,WUHU216HW,2013-03-02 23:00:00,
2013-03-02 16:03:00,52.9,30.9,29.86,North,0,0.9,2.5,43,0.00,,,0.00,WUHU216HW,2013-03-02 23:03:00,
2013-03-02 16:04:00,52.9,31.5,29.86,North,0,1.1,2.5,44,0.00,,,0.00,WUHU216HW,2013-03-02 23:04:00,
2013-03-02 16:05:00,52.9,32.1,29.86,North,0,1.1,2.5,45,0.00,,,0.00,WUHU216HW,2013-03-02 23:05:00,
2013-03-02 16:06:00,52.9,31.5,29.86,North,0,1.3,1.8,44,0.00,,,0.00,WUHU216HW,2013-03-02 23:06:00,
2013-03-02 16:08:00,52.9,31.5,29.86,North,0,1.3,1.6,44,0.00,,,0.00,WUHU216HW,2013-03-02 23:08:00,
2013-03-02 16:10:00,52.7,31.9,29.86,North,0,0.7,1.3,45,0.00,,,0.00,WUHU216HW,2013-03-02 23:10:00,
2013-03-02 16:11:00,52.9,32.1,29.86,North,0,1.6,1.6,45,0.00,,,0.00,WUHU216HW,2013-03-02 23:11:00,
2013-03-02 16:13:00,52.9,32.1,29.86,North,0,1.8,2.5,45,0.00,,,0.00,WUHU216HW,2013-03-02 23:13:00,
2013-03-02 16:15:00,52.9,32.1,29.85,North,0,0.2,2.5,45,0.00,,,0.00,WUHU216HW,2013-03-02 23:15:00,
2013-03-02 16:16:00,52.9,32.1,29.85,NNW,338,1.6,2.5,45,0.00,,,0.00,WUHU216HW,2013-03-02 23:16:00,
2013-03-02 16:18:00,53.1,32.2,29.85,NW,315,0.7,2.5,45,0.00,,,0.00,WUHU216HW,2013-03-02 23:18:00,
2013-03-02 16:20:00,53.3,32.3,29.85,NW,315,0.4,2.5,45,0.00,,,0.00,WUHU216HW,2013-03-02 23:20:00,
2013-03-02 16:21:00,53.3,32.3,29.85,NW,315,0.0,2.0,45,0.00,,,0.00,WUHU216HW,2013-03-02 23:21:00,
2013-03-02 16:23:00,53.5,32.5,29.84,NW,315,0.0,2.0,45,0.00,,,0.00,WUHU216HW,2013-03-02 23:23:00,
2013-03-02 16:25:00,53.6,32.7,29.84,NW,315,0.7,2.0,45,0.00,,,0.00,WUHU216HW,2013-03-02 23:25:00,
2013-03-02 16:26:00,53.6,32.7,29.84,NW,315,0.0,1.8,45,0.00,,,0.00,WUHU216HW,2013-03-02 23:26:00,
2013-03-02 16:28:00,53.6,32.1,29.84,NW,315,0.0,0.7,44,0.00,,,0.00,WUHU216HW,2013-03-02 23:28:00,
2013-03-02 16:31:00,53.8,32.9,29.84,NW,315,0.0,0.7,45,0.00,,,0.00,WUHU216HW,2013-03-02 23:31:00,
2013-03-02 16:32:00,53.8,32.9,29.84,NW,315,0.0,0.7,45,0.00,,,0.00,WUHU216HW,2013-03-02 23:32:00,
2013-03-02 16:33:00,54.0,33.0,29.84,WNW,293,1.1,1.1,45,0.00,,,0.00,WUHU216HW,2013-03-02 23:33:00,
2013-03-02 16:36:00,54.0,33.0,29.84,West,270,2.7,2.9,45,0.00,,,0.00,WUHU216HW,2013-03-02 23:36:00,
2013-03-02 16:37:00,54.0,33.0,29.84,West,270,1.1,2.9,45,0.00,,,0.00,WUHU216HW,2013-03-02 23:37:00,
2013-03-02 16:38:00,54.0,33.0,29.84,West,270,2.7,2.9,45,0.00,,,0.00,WUHU216HW,2013-03-02 23:38:00,
2013-03-02 16:41:00,53.8,33.4,29.84,West,270,2.0,2.9,46,0.00,,,0.00,WUHU216HW,2013-03-02 23:41:00,
2013-03-02 16:42:00,53.6,32.1,29.84,West,270,3.4,3.4,44,0.00,,,0.00,WUHU216HW,2013-03-02 23:42:00,
2013-03-02 16:43:00,53.6,32.1,29.84,West,270,2.0,3.4,44,0.00,,,0.00,WUHU216HW,2013-03-02 23:43:00,
2013-03-02 16:46:00,53.3,32.3,29.83,West,270,2.7,4.0,45,0.00,,,0.00,WUHU216HW,2013-03-02 23:46:00,
2013-03-02 16:47:00,53.3,33.0,29.83,West,270,3.1,4.0,46,0.00,,,0.00,WUHU216HW,2013-03-02 23:47:00,
2013-03-02 16:48:00,53.1,32.8,29.83,West,270,2.7,4.0,46,0.00,,,0.00,WUHU216HW,2013-03-02 23:48:00,
2013-03-02 16:51:00,52.9,32.6,29.83,West,270,3.8,4.0,46,0.00,,,0.00,WUHU216HW,2013-03-02 23:51:00,
2013-03-02 16:52:00,52.7,32.4,29.83,West,270,3.4,4.0,46,0.00,,,0.00,WUHU216HW,2013-03-02 23:52:00,
2013-03-02 16:53:00,52.7,31.9,29.83,West,270,3.4,4.0,45,0.00,,,0.00,WUHU216HW,2013-03-02 23:53:00,
2013-03-02 16:56:00,52.6,32.2,29.83,West,270,3.4,4.3,46,0.00,,,0.00,WUHU216HW,2013-03-02 23:56:00,
2013-03-02 16:57:00,52.4,31.0,29.83,WNW,293,3.6,4.3,44,0.00,,,0.00,WUHU216HW,2013-03-02 23:57:00,
2013-03-02 16:59:00,52.2,30.8,29.83,WNW,293,4.0,4.3,44,0.00,,,0.00,WUHU216HW,2013-03-02 23:59:00,
2013-03-02 17:01:00,51.8,30.5,29.83,WNW,293,4.0,4.3,44,0.00,,,0.00,WUHU216HW,2013-03-03 00:01:00,
2013-03-02 17:02:00,51.8,30.5,29.83,WNW,293,4.3,4.3,44,0.00,,,0.00,WUHU216HW,2013-03-03 00:02:00,
2013-03-02 17:04:00,51.5,30.2,29.83,WNW,293,4.3,4.7,44,0.00,,,0.00,WUHU216HW,2013-03-03 00:04:00,
2013-03-02 17:06:00,51.5,30.2,29.83,WNW,293,5.4,5.4,44,0.00,,,0.00,WUHU216HW,2013-03-03 00:06:00,
2013-03-02 17:07:00,51.3,30.0,29.83,WNW,293,4.3,5.4,44,0.00,,,0.00,WUHU216HW,2013-03-03 00:07:00,
2013-03-02 17:09:00,51.1,29.9,29.82,WNW,293,4.5,5.4,44,0.00,,,0.00,WUHU216HW,2013-03-03 00:09:00,
2013-03-02 17:11:00,50.9,30.2,29.82,WNW,293,6.3,6.3,45,0.00,,,0.00,WUHU216HW,2013-03-03 00:11:00,
2013-03-02 17:12:00,50.9,30.2,29.82,WNW,293,6.0,6.3,45,0.00,,,0.00,WUHU216HW,2013-03-03 00:12:00,
2013-03-02 17:14:00,50.8,29.5,29.82,West,270,5.1,6.3,44,0.00,,,0.00,WUHU216HW,2013-03-03 00:14:00,
2013-03-02 17:17:00,50.8,29.5,29.82,WNW,293,4.7,6.3,44,0.00,,,0.00,WUHU216HW,2013-03-03 00:17:00,
2013-03-02 17:18:00,50.8,30.1,29.82,WNW,293,5.4,6.3,45,0.00,,,0.00,WUHU216HW,2013-03-03 00:18:00,
2013-03-02 17:20:00,50.8,30.1,29.82,WNW,293,6.0,6.3,45,0.00,,,0.00,WUHU216HW,2013-03-03 00:20:00,
2013-03-02 17:22:00,50.6,30.5,29.82,WNW,293,6.3,6.3,46,0.00,,,0.00,WUHU216HW,2013-03-03 00:22:00,
2013-03-02 17:23:00,50.4,30.3,29.82,WNW,293,6.0,6.3,46,0.00,,,0.00,WUHU216HW,2013-03-03 00:23:00,
2013-03-02 17:25:00,50.2,30.7,29.82,WNW,293,5.4,6.3,47,0.00,,,0.00,WUHU216HW,2013-03-03 00:25:00,
2013-03-02 17:27:00,50.0,30.5,29.82,WNW,293,5.4,6.3,47,0.00,,,0.00,WUHU216HW,2013-03-03 00:27:00,
2013-03-02 17:28:00,49.9,31.0,29.81,WNW,293,5.1,6.3,48,0.00,,,0.00,WUHU216HW,2013-03-03 00:28:00,
2013-03-02 17:30:00,49.5,30.6,29.81,WNW,293,4.5,6.3,48,0.00,,,0.00,WUHU216HW,2013-03-03 00:30:00,
2013-03-02 17:32:00,49.3,30.4,29.81,WNW,293,4.3,6.3,48,0.00,,,0.00,WUHU216HW,2013-03-03 00:32:00,
2013-03-02 17:33:00,49.3,30.4,29.81,WNW,293,4.7,6.3,48,0.00,,,0.00,WUHU216HW,2013-03-03 00:33:00,
2013-03-02 17:35:00,49.0,30.1,29.81,WNW,293,5.1,5.4,48,0.00,,,0.00,WUHU216HW,2013-03-03 00:35:00,
2013-03-02 17:37:00,49.0,30.1,29.81,WNW,293,4.7,5.4,48,0.00,,,0.00,WUHU216HW,2013-03-03 00:37:00,
2013-03-02 17:38:00,49.0,30.1,29.81,WNW,293,4.0,5.1,48,0.00,,,0.00,WUHU216HW,2013-03-03 00:38:00,
2013-03-02 17:41:00,48.8,29.9,29.81,West,270,3.4,5.1,48,0.00,,,0.00,WUHU216HW,2013-03-03 00:41:00,
2013-03-02 17:42:00,49.0,30.1,29.81,West,270,3.6,5.1,48,0.00,,,0.00,WUHU216HW,2013-03-03 00:42:00,
2013-03-02 17:43:00,48.8,29.9,29.81,West,270,3.6,5.1,48,0.00,,,0.00,WUHU216HW,2013-03-03 00:43:00,
2013-03-02 17:44:00,48.8,29.9,29.81,West,270,4.7,5.1,48,0.00,,,0.00,WUHU216HW,2013-03-03 00:44:00,
2013-03-02 17:46:00,48.4,30.1,29.82,WSW,248,5.4,6.0,49,0.00,,,0.00,WUHU216HW,2013-03-03 00:46:00,
2013-03-02 17:47:00,48.2,29.9,29.82,WSW,248,5.1,6.0,49,0.00,,,0.00,WUHU216HW,2013-03-03 00:47:00,
2013-03-02 17:48:00,48.2,29.9,29.81,WSW,248,5.1,6.0,49,0.00,,,0.00,WUHU216HW,2013-03-03 00:48:00,
2013-03-02 17:49:00,48.2,29.9,29.82,WSW,248,4.7,6.0,49,0.00,,,0.00,WUHU216HW,2013-03-03 00:49:00,
2013-03-02 17:51:00,47.9,30.1,29.81,WSW,248,6.3,6.3,50,0.00,,,0.00,WUHU216HW,2013-03-03 00:51:00,
2013-03-02 17:52:00,47.9,30.1,29.81,WSW,248,6.9,6.9,50,0.00,,,0.00,WUHU216HW,2013-03-03 00:52:00,
2013-03-02 17:53:00,47.7,30.0,29.81,WSW,248,6.9,6.9,50,0.00,,,0.00,WUHU216HW,2013-03-03 00:53:00,
2013-03-02 17:54:00,47.5,30.3,29.82,WSW,248,6.3,6.9,51,0.00,,,0.00,WUHU216HW,2013-03-03 00:54:00,
2013-03-02 17:56:00,47.2,30.3,29.81,WSW,248,7.2,7.4,52,0.00,,,0.00,WUHU216HW,2013-03-03 00:56:00,
2013-03-02 17:57:00,47.0,30.3,29.81,WSW,248,6.0,7.4,52,0.00,,,0.00,WUHU216HW,2013-03-03 00:57:00,
2013-03-02 17:58:00,47.0,30.3,29.81,WSW,248,6.0,7.4,52,0.00,,,0.00,WUHU216HW,2013-03-03 00:58:00,
2013-03-02 17:59:00,46.8,30.1,29.81,WSW,248,4.9,7.4,52,0.00,,,0.00,WUHU216HW,2013-03-03 00:59:00,
2013-03-02 18:01:00,46.6,29.9,29.81,WSW,248,5.6,7.4,52,0.00,,,0.00,WUHU216HW,2013-03-03 01:01:00,
2013-03-02 18:02:00,46.4,29.7,29.81,WSW,248,5.6,7.4,52,0.00,,,0.00,WUHU216HW,2013-03-03 01:02:00,
2013-03-02 18:03:00,46.4,29.7,29.81,WSW,248,6.0,7.4,52,0.00,,,0.00,WUHU216HW,2013-03-03 01:03:00,
2013-03-02 18:04:00,46.3,29.5,29.81,WSW,248,6.3,7.4,52,0.00,,,0.00,WUHU216HW,2013-03-03 01:04:00,
2013-03-02 18:06:00,45.9,29.7,29.81,West,270,7.8,7.8,53,0.00,,,0.00,WUHU216HW,2013-03-03 01:06:00,
2013-03-02 18:08:00,45.7,29.5,29.81,WSW,248,6.9,7.8,53,0.00,,,0.00,WUHU216HW,2013-03-03 01:08:00,
2013-03-02 18:10:00,45.7,30.0,29.81,West,270,6.7,7.8,54,0.00,,,0.00,WUHU216HW,2013-03-03 01:10:00,
2013-03-02 18:12:00,45.7,30.0,29.81,WSW,248,7.6,7.8,54,0.00,,,0.00,WUHU216HW,2013-03-03 01:12:00,
2013-03-02 18:13:00,45.5,29.8,29.81,West,270,7.4,7.8,54,0.00,,,0.00,WUHU216HW,2013-03-03 01:13:00,
2013-03-02 18:15:00,45.4,29.6,29.80,WSW,248,6.9,7.8,54,0.00,,,0.00,WUHU216HW,2013-03-03 01:15:00,
2013-03-02 18:17:00,45.2,29.9,29.80,West,270,7.4,7.6,55,0.00,,,0.00,WUHU216HW,2013-03-03 01:17:00,
2013-03-02 18:18:00,45.0,29.8,29.80,WSW,248,7.4,7.6,55,0.00,,,0.00,WUHU216HW,2013-03-03 01:18:00,
2013-03-02 18:20:00,44.8,29.2,29.80,West,270,6.9,7.6,54,0.00,,,0.00,WUHU216HW,2013-03-03 01:20:00,
2013-03-02 18:22:00,44.8,29.2,29.80,West,270,7.6,7.6,54,0.00,,,0.00,WUHU216HW,2013-03-03 01:22:00,
2013-03-02 18:23:00,44.8,29.6,29.80,West,270,7.6,7.6,55,0.00,,,0.00,WUHU216HW,2013-03-03 01:23:00,
2013-03-02 18:26:00,44.6,29.4,29.80,WSW,248,8.7,8.7,55,0.00,,,0.00,WUHU216HW,2013-03-03 01:26:00,
2013-03-02 18:27:00,44.5,29.3,29.80,West,270,8.5,8.7,55,0.00,,,0.00,WUHU216HW,2013-03-03 01:27:00,
2013-03-02 18:28:00,44.3,29.1,29.80,West,270,7.4,8.7,55,0.00,,,0.00,WUHU216HW,2013-03-03 01:28:00,
2013-03-02 18:31:00,43.9,28.7,29.80,WSW,248,7.6,8.7,55,0.00,,,0.00,WUHU216HW,2013-03-03 01:31:00,
2013-03-02 18:32:00,43.7,29.0,29.80,WSW,248,8.7,8.7,56,0.00,,,0.00,WUHU216HW,2013-03-03 01:32:00,
2013-03-02 18:33:00,43.7,29.4,29.80,WSW,248,9.2,9.2,57,0.00,,,0.00,WUHU216HW,2013-03-03 01:33:00,
2013-03-02 18:34:00,43.7,29.0,29.80,West,270,9.2,9.2,56,0.00,,,0.00,WUHU216HW,2013-03-03 01:34:00,
2013-03-02 18:36:00,43.6,29.3,29.80,WSW,248,9.2,9.2,57,0.00,,,0.00,WUHU216HW,2013-03-03 01:36:00,
2013-03-02 18:37:00,43.6,29.3,29.80,West,270,8.1,9.2,57,0.00,,,0.00,WUHU216HW,2013-03-03 01:37:00,
2013-03-02 18:38:00,43.6,29.7,29.79,West,270,8.7,9.2,58,0.00,,,0.00,WUHU216HW,2013-03-03 01:38:00,
2013-03-02 18:39:00,43.6,29.3,29.80,West,270,8.5,9.2,57,0.00,,,0.00,WUHU216HW,2013-03-03 01:39:00,
2013-03-02 18:41:00,43.6,29.7,29.80,West,270,8.1,9.2,58,0.00,,,0.00,WUHU216HW,2013-03-03 01:41:00,
2013-03-02 18:42:00,43.6,29.3,29.79,West,270,8.3,9.2,57,0.00,,,0.00,WUHU216HW,2013-03-03 01:42:00,
2013-03-02 18:43:00,43.6,29.3,29.79,West,270,8.3,9.2,57,0.00,,,0.00,WUHU216HW,2013-03-03 01:43:00,
2013-03-02 18:44:00,43.6,29.3,29.80,West,270,7.2,9.2,57,0.00,,,0.00,WUHU216HW,2013-03-03 01:44:00,
2013-03-02 18:46:00,43.4,29.1,29.79,WSW,248,9.2,9.2,57,0.00,,,0.00,WUHU216HW,2013-03-03 01:46:00,
2013-03-02 18:48:00,43.2,29.3,29.79,WSW,248,8.3,9.6,58,0.00,,,0.00,WUHU216HW,2013-03-03 01:48:00,
2013-03-02 18:49:00,43.2,29.3,29.79,West,270,8.1,9.6,58,0.00,,,0.00,WUHU216HW,2013-03-03 01:49:00,
2013-03-02 18:51:00,43.2,29.3,29.79,West,270,8.3,9.6,58,0.00,,,0.00,WUHU216HW,2013-03-03 01:51:00,
2013-03-02 18:53:00,43.2,29.3,29.79,West,270,8.5,9.6,58,0.00,,,0.00,WUHU216HW,2013-03-03 01:53:00,
2013-03-02 18:54:00,43.0,29.2,29.79,West,270,9.2,9.6,58,0.00,,,0.00,WUHU216HW,2013-03-03 01:54:00,
2013-03-02 18:56:00,43.0,29.2,29.79,WSW,248,8.9,9.6,58,0.00,,,0.00,WUHU216HW,2013-03-03 01:56:00,
2013-03-02 18:58:00,43.0,29.2,29.79,West,270,7.6,9.2,58,0.00,,,0.00,WUHU216HW,2013-03-03 01:58:00,
2013-03-02 18:59:00,43.0,29.2,29.79,West,270,7.6,9.2,58,0.00,,,0.00,WUHU216HW,2013-03-03 01:59:00,
2013-03-02 19:01:00,43.0,29.2,29.79,West,270,8.7,9.2,58,0.00,,,0.00,WUHU216HW,2013-03-03 02:01:00,
2013-03-02 19:03:00,43.0,29.2,29.79,WSW,248,7.8,9.8,58,0.00,,,0.00,WUHU216HW,2013-03-03 02:03:00,
2013-03-02 19:04:00,42.8,29.0,29.79,West,270,10.1,10.1,58,0.00,,,0.00,WUHU216HW,2013-03-03 02:04:00,
2013-03-02 19:06:00,42.8,29.0,29.79,WSW,248,8.9,10.1,58,0.00,,,0.00,WUHU216HW,2013-03-03 02:06:00,
2013-03-02 19:08:00,42.8,29.0,29.79,WSW,248,9.4,10.1,58,0.00,,,0.00,WUHU216HW,2013-03-03 02:08:00,
2013-03-02 19:10:00,42.8,29.0,29.79,West,270,8.7,10.1,58,0.00,,,0.00,WUHU216HW,2013-03-03 02:10:00,
2013-03-02 19:11:00,42.8,29.0,29.79,West,270,7.8,10.1,58,0.00,,,0.00,WUHU216HW,2013-03-03 02:11:00,
2013-03-02 19:13:00,42.8,29.0,29.79,West,270,8.7,10.1,58,0.00,,,0.00,WUHU216HW,2013-03-03 02:13:00,
2013-03-02 19:15:00,42.7,28.9,29.78,West,270,8.1,9.6,58,0.00,,,0.00,WUHU216HW,2013-03-03 02:15:00,
2013-03-02 19:16:00,42.7,28.9,29.78,West,270,8.5,9.6,58,0.00,,,0.00,WUHU216HW,2013-03-03 02:16:00,
2013-03-02 19:18:00,42.5,29.2,29.78,WSW,248,8.9,9.6,59,0.00,,,0.00,WUHU216HW,2013-03-03 02:18:00,
2013-03-02 19:20:00,42.5,29.2,29.78,WSW,248,8.5,9.6,59,0.00,,,0.00,WUHU216HW,2013-03-03 02:20:00,
2013-03-02 19:22:00,42.3,29.0,29.78,WSW,248,8.9,9.6,59,0.00,,,0.00,WUHU216HW,2013-03-03 02:22:00,
2013-03-02 19:23:00,42.1,29.3,29.79,WSW,248,9.2,9.2,60,0.00,,,0.00,WUHU216HW,2013-03-03 02:23:00,
2013-03-02 19:25:00,42.1,29.3,29.79,WSW,248,8.5,9.2,60,0.00,,,0.00,WUHU216HW,2013-03-03 02:25:00,
2013-03-02 19:27:00,42.1,29.3,29.78,West,270,8.5,9.6,60,0.00,,,0.00,WUHU216HW,2013-03-03 02:27:00,
2013-03-02 19:29:00,41.9,29.1,29.79,WSW,248,9.2,9.6,60,0.00,,,0.00,WUHU216HW,2013-03-03 02:29:00,
2013-03-02 19:30:00,41.9,29.1,29.79,WSW,248,8.5,9.6,60,0.00,,,0.00,WUHU216HW,2013-03-03 02:30:00,
2013-03-02 19:32:00,41.8,28.9,29.79,West,270,7.4,9.6,60,0.00,,,0.00,WUHU216HW,2013-03-03 02:32:00,
2013-03-02 19:34:00,41.8,28.9,29.78,West,270,8.3,9.6,60,0.00,,,0.00,WUHU216HW,2013-03-03 02:34:00,
2013-03-02 19:35:00,41.8,28.9,29.78,West,270,8.5,9.6,60,0.00,,,0.00,WUHU216HW,2013-03-03 02:35:00,
2013-03-02 19:37:00,41.8,29.3,29.78,West,270,7.6,9.2,61,0.00,,,0.00,WUHU216HW,2013-03-03 02:37:00,
2013-03-02 19:39:00,41.8,29.3,29.78,West,270,7.4,9.2,61,0.00,,,0.00,WUHU216HW,2013-03-03 02:39:00,
2013-03-02 19:40:00,41.8,29.3,29.78,WSW,248,8.1,9.2,61,0.00,,,0.00,WUHU216HW,2013-03-03 02:40:00,
2013-03-02 19:41:00,41.8,29.3,29.78,WSW,248,8.1,9.2,61,0.00,,,0.00,WUHU216HW,2013-03-03 02:41:00,
2013-03-02 19:42:00,41.8,29.3,29.78,WSW,248,7.4,9.2,61,0.00,,,0.00,WUHU216HW,2013-03-03 02:42:00,
2013-03-02 19:44:00,41.8,29.3,29.78,WSW,248,8.5,9.2,61,0.00,,,0.00,WUHU216HW,2013-03-03 02:44:00,
2013-03-02 19:46:00,41.8,29.3,29.77,WSW,248,8.1,9.2,61,0.00,,,0.00,WUHU216HW,2013-03-03 02:46:00,
2013-03-02 19:48:00,41.8,29.3,29.77,WSW,248,7.6,9.2,61,0.00,,,0.00,WUHU216HW,2013-03-03 02:48:00,
2013-03-02 19:49:00,41.8,29.3,29.77,WSW,248,8.5,9.2,61,0.00,,,0.00,WUHU216HW,2013-03-03 02:49:00,
2013-03-02 19:51:00,41.8,29.3,29.77,WSW,248,7.8,9.2,61,0.00,,,0.00,WUHU216HW,2013-03-03 02:51:00,
2013-03-02 19:52:00,41.8,29.3,29.77,SW,225,8.5,9.2,61,0.00,,,0.00,WUHU216HW,2013-03-03 02:52:00,
2013-03-02 19:53:00,41.8,28.9,29.77,WSW,248,6.9,9.2,60,0.00,,,0.00,WUHU216HW,2013-03-03 02:53:00,
2013-03-02 19:54:00,41.9,29.1,29.77,WSW,248,6.9,8.5,60,0.00,,,0.00,WUHU216HW,2013-03-03 02:54:00,
2013-03-02 19:56:00,41.9,29.1,29.76,WSW,248,6.9,8.5,60,0.00,,,0.00,WUHU216HW,2013-03-03 02:56:00,
2013-03-02 19:57:00,41.8,29.3,29.76,SW,225,5.8,8.5,61,0.00,,,0.00,WUHU216HW,2013-03-03 02:57:00,
2013-03-02 19:58:00,41.8,29.3,29.76,SW,225,6.3,8.5,61,0.00,,,0.00,WUHU216HW,2013-03-03 02:58:00,
2013-03-02 19:59:00,41.8,28.9,29.76,SW,225,5.4,8.5,60,0.00,,,0.00,WUHU216HW,2013-03-03 02:59:00,
2013-03-02 20:01:00,41.8,29.3,29.76,SW,225,4.7,8.5,61,0.00,,,0.00,WUHU216HW,2013-03-03 03:01:00,
2013-03-02 20:02:00,41.6,29.2,29.76,SW,225,3.1,8.5,61,0.00,,,0.00,WUHU216HW,2013-03-03 03:02:00,
2013-03-02 20:03:00,41.6,29.2,29.76,SW,225,2.9,7.2,61,0.00,,,0.00,WUHU216HW,2013-03-03 03:03:00,
2013-03-02 20:04:00,41.6,29.2,29.76,SW,225,3.4,6.9,61,0.00,,,0.00,WUHU216HW,2013-03-03 03:04:00,
2013-03-02 20:06:00,41.4,29.0,29.76,SW,225,3.4,6.3,61,0.00,,,0.00,WUHU216HW,2013-03-03 03:06:00,
2013-03-02 20:07:00,41.4,29.0,29.76,SW,225,2.9,6.3,61,0.00,,,0.00,WUHU216HW,2013-03-03 03:07:00,
2013-03-02 20:08:00,41.4,28.6,29.76,SW,225,2.5,6.3,60,0.00,,,0.00,WUHU216HW,2013-03-03 03:08:00,
2013-03-02 20:09:00,41.4,29.0,29.76,SW,225,2.9,5.6,61,0.00,,,0.00,WUHU216HW,2013-03-03 03:09:00,
2013-03-02 20:11:00,41.4,28.6,29.76,SW,225,2.7,4.0,60,0.00,,,0.00,WUHU216HW,2013-03-03 03:11:00,
2013-03-02 20:12:00,41.4,29.0,29.76,SW,225,2.7,3.6,61,0.00,,,0.00,WUHU216HW,2013-03-03 03:12:00,
2013-03-02 20:13:00,41.4,29.0,29.76,SW,225,4.0,4.0,61,0.00,,,0.00,WUHU216HW,2013-03-03 03:13:00,
2013-03-02 20:14:00,41.2,28.8,29.76,SW,225,3.8,4.7,61,0.00,,,0.00,WUHU216HW,2013-03-03 03:14:00,
2013-03-02 20:17:00,41.2,28.8,29.76,SSW,203,3.4,4.7,61,0.00,,,0.00,WUHU216HW,2013-03-03 03:17:00,
2013-03-02 20:18:00,41.4,29.0,29.76,SW,225,2.5,4.7,61,0.00,,,0.00,WUHU216HW,2013-03-03 03:18:00,
2013-03-02 20:19:00,41.2,28.8,29.76,SW,225,2.5,4.7,61,0.00,,,0.00,WUHU216HW,2013-03-03 03:19:00,
2013-03-02 20:22:00,41.4,29.0,29.76,WSW,248,4.0,4.7,61,0.00,,,0.00,WUHU216HW,2013-03-03 03:22:00,
2013-03-02 20:23:00,41.4,29.0,29.76,WSW,248,3.1,4.7,61,0.00,,,0.00,WUHU216HW,2013-03-03 03:23:00,
2013-03-02 20:25:00,41.4,29.0,29.76,WSW,248,3.8,4.7,61,0.00,,,0.00,WUHU216HW,2013-03-03 03:25:00,
2013-03-02 20:27:00,41.4,29.0,29.75,WSW,248,4.7,5.1,61,0.00,,,0.00,WUHU216HW,2013-03-03 03:27:00,
2013-03-02 20:28:00,41.4,28.6,29.75,WSW,248,4.5,5.4,60,0.00,,,0.00,WUHU216HW,2013-03-03 03:28:00,
2013-03-02 20:30:00,41.4,28.6,29.75,WSW,248,3.6,5.4,60,0.00,,,0.00,WUHU216HW,2013-03-03 03:30:00,
2013-03-02 20:32:00,41.4,28.6,29.75,SW,225,3.1,5.4,60,0.00,,,0.00,WUHU216HW,2013-03-03 03:32:00,
2013-03-02 20:33:00,41.6,28.7,29.75,WSW,248,3.4,5.4,60,0.00,,,0.00,WUHU216HW,2013-03-03 03:33:00,
2013-03-02 20:34:00,41.6,28.7,29.75,SW,225,3.4,5.4,60,0.00,,,0.00,WUHU216HW,2013-03-03 03:34:00,
2013-03-02 20:35:00,41.6,28.7,29.75,WSW,248,2.5,5.4,60,0.00,,,0.00,WUHU216HW,2013-03-03 03:35:00,
2013-03-02 20:37:00,41.4,28.6,29.75,WSW,248,5.4,5.4,60,0.00,,,0.00,WUHU216HW,2013-03-03 03:37:00,
2013-03-02 20:38:00,41.4,28.6,29.75,WSW,248,4.9,5.4,60,0.00,,,0.00,WUHU216HW,2013-03-03 03:38:00,
2013-03-02 20:39:00,41.4,28.6,29.75,WSW,248,5.4,5.4,60,0.00,,,0.00,WUHU216HW,2013-03-03 03:39:00,
2013-03-02 20:40:00,41.4,28.6,29.75,WSW,248,4.0,5.4,60,0.00,,,0.00,WUHU216HW,2013-03-03 03:40:00,
2013-03-02 20:42:00,41.2,28.5,29.75,WSW,248,2.9,5.4,60,0.00,,,0.00,WUHU216HW,2013-03-03 03:42:00,
2013-03-02 20:43:00,41.2,28.5,29.75,WSW,248,2.7,5.4,60,0.00,,,0.00,WUHU216HW,2013-03-03 03:43:00,
2013-03-02 20:44:00,41.2,28.5,29.75,WSW,248,3.4,5.4,60,0.00,,,0.00,WUHU216HW,2013-03-03 03:44:00,
2013-03-02 20:45:00,41.0,28.3,29.75,West,270,3.1,5.4,60,0.00,,,0.00,WUHU216HW,2013-03-03 03:45:00,
2013-03-02 20:47:00,40.9,28.8,29.75,NE,45,2.7,5.4,62,0.00,,,0.00,WUHU216HW,2013-03-03 03:47:00,
2013-03-02 20:48:00,40.7,29.1,29.75,NE,45,2.5,5.4,63,0.00,,,0.00,WUHU216HW,2013-03-03 03:48:00,
2013-03-02 20:49:00,40.7,29.1,29.75,NE,45,3.4,5.4,63,0.00,,,0.00,WUHU216HW,2013-03-03 03:49:00,
2013-03-02 20:50:00,40.7,29.1,29.75,NE,45,4.0,4.7,63,0.00,,,0.00,WUHU216HW,2013-03-03 03:50:00,
2013-03-02 20:52:00,40.3,29.1,29.75,NE,45,4.0,4.3,64,0.00,,,0.00,WUHU216HW,2013-03-03 03:52:00,
2013-03-02 20:53:00,40.3,28.7,29.75,ENE,68,3.1,4.3,63,0.00,,,0.00,WUHU216HW,2013-03-03 03:53:00,
2013-03-02 20:54:00,40.3,28.7,29.75,East,90,3.4,4.3,63,0.00,,,0.00,WUHU216HW,2013-03-03 03:54:00,
2013-03-02 20:55:00,40.3,28.7,29.75,East,90,2.0,4.3,63,0.00,,,0.00,WUHU216HW,2013-03-03 03:55:00,
2013-03-02 20:58:00,40.1,28.5,29.74,NNW,338,0.9,4.3,63,0.00,,,0.00,WUHU216HW,2013-03-03 03:58:00,
2013-03-02 20:59:00,40.0,28.4,29.74,NW,315,3.4,4.3,63,0.00,,,0.00,WUHU216HW,2013-03-03 03:59:00,
2013-03-02 21:00:00,40.0,28.4,29.74,NW,315,3.8,4.0,63,0.00,,,0.00,WUHU216HW,2013-03-03 04:00:00,
2013-03-02 21:03:00,39.4,27.8,29.74,NW,315,2.5,3.8,63,0.00,,,0.00,WUHU216HW,2013-03-03 04:03:00,
2013-03-02 21:04:00,39.2,27.6,29.74,NW,315,2.5,3.8,63,0.00,,,0.00,WUHU216HW,2013-03-03 04:04:00,
2013-03-02 21:05:00,39.2,28.0,29.74,NW,315,2.9,3.8,64,0.00,,,0.00,WUHU216HW,2013-03-03 04:05:00,
2013-03-02 21:08:00,38.9,27.6,29.74,WNW,293,2.9,3.8,64,0.00,,,0.00,WUHU216HW,2013-03-03 04:08:00,
2013-03-02 21:09:00,38.9,27.6,29.74,WNW,293,3.6,3.8,64,0.00,,,0.00,WUHU216HW,2013-03-03 04:09:00,
2013-03-02 21:11:00,38.9,28.0,29.74,NW,315,4.9,5.1,65,0.00,,,0.00,WUHU216HW,2013-03-03 04:11:00,
2013-03-02 21:13:00,38.7,28.3,29.74,West,270,3.8,5.1,66,0.00,,,0.00,WUHU216HW,2013-03-03 04:13:00,
2013-03-02 21:14:00,38.9,28.0,29.74,WNW,293,3.1,5.1,65,0.00,,,0.00,WUHU216HW,2013-03-03 04:14:00,
2013-03-02 21:16:00,38.9,28.0,29.74,West,270,3.4,5.1,65,0.00,,,0.00,WUHU216HW,2013-03-03 04:16:00,
2013-03-02 21:19:00,38.7,27.5,29.74,West,270,4.0,5.4,64,0.00,,,0.00,WUHU216HW,2013-03-03 04:19:00,
2013-03-02 21:21:00,38.3,27.5,29.74,WNW,293,5.4,5.4,65,0.00,,,0.00,WUHU216HW,2013-03-03 04:21:00,
2013-03-02 21:24:00,38.0,28.0,29.73,WNW,293,4.9,5.6,67,0.00,,,0.00,WUHU216HW,2013-03-03 04:24:00,
2013-03-02 21:26:00,38.2,27.7,29.74,WNW,293,1.6,5.6,66,0.00,,,0.00,WUHU216HW,2013-03-03 04:26:00,
2013-03-02 21:29:00,38.2,27.4,29.74,West,270,4.0,5.6,65,0.00,,,0.00,WUHU216HW,2013-03-03 04:29:00,
2013-03-02 21:31:00,37.8,27.5,29.74,West,270,4.0,5.6,66,0.00,,,0.00,WUHU216HW,2013-03-03 04:31:00,
2013-03-02 21:34:00,37.6,26.9,29.73,West,270,2.2,4.5,65,0.00,,,0.00,WUHU216HW,2013-03-03 04:34:00,
2013-03-02 21:35:00,37.6,26.9,29.73,West,270,2.0,4.3,65,0.00,,,0.00,WUHU216HW,2013-03-03 04:35:00,
2013-03-02 21:36:00,37.6,26.9,29.73,West,270,2.0,4.3,65,0.00,,,0.00,WUHU216HW,2013-03-03 04:36:00,
2013-03-02 21:39:00,37.3,26.9,29.73,WSW,248,4.5,4.9,66,0.00,,,0.00,WUHU216HW,2013-03-03 04:39:00,
2013-03-02 21:40:00,37.1,27.2,29.73,WNW,293,3.8,4.9,67,0.00,,,0.00,WUHU216HW,2013-03-03 04:40:00,
2013-03-02 21:41:00,37.1,27.2,29.73,NW,315,3.1,4.9,67,0.00,,,0.00,WUHU216HW,2013-03-03 04:41:00,
2013-03-02 21:44:00,37.4,27.5,29.73,WSW,248,4.0,4.9,67,0.00,,,0.00,WUHU216HW,2013-03-03 04:44:00,
2013-03-02 21:45:00,37.4,27.1,29.73,WSW,248,4.3,4.9,66,0.00,,,0.00,WUHU216HW,2013-03-03 04:45:00,
2013-03-02 21:46:00,37.4,27.1,29.73,West,270,4.3,5.1,66,0.00,,,0.00,WUHU216HW,2013-03-03 04:46:00,
2013-03-02 21:49:00,36.7,26.8,29.73,NW,315,3.8,5.1,67,0.00,,,0.00,WUHU216HW,2013-03-03 04:49:00,
2013-03-02 21:50:00,36.5,26.7,29.73,NW,315,3.8,5.1,67,0.00,,,0.00,WUHU216HW,2013-03-03 04:50:00,
2013-03-02 21:51:00,36.5,27.0,29.73,NW,315,2.9,5.1,68,0.00,,,0.00,WUHU216HW,2013-03-03 04:51:00,
2013-03-02 21:54:00,36.4,26.5,29.72,WSW,248,3.6,5.1,67,0.00,,,0.00,WUHU216HW,2013-03-03 04:54:00,
2013-03-02 21:55:00,36.4,26.5,29.72,WSW,248,5.1,5.8,67,0.00,,,0.00,WUHU216HW,2013-03-03 04:55:00,
2013-03-02 21:56:00,36.2,26.3,29.72,WSW,248,4.7,5.8,67,0.00,,,0.00,WUHU216HW,2013-03-03 04:56:00,
2013-03-02 21:59:00,36.2,26.7,29.72,WSW,248,2.5,5.8,68,0.00,,,0.00,WUHU216HW,2013-03-03 04:59:00,
2013-03-02 22:00:00,36.2,26.7,29.73,West,270,3.4,5.8,68,0.00,,,0.00,WUHU216HW,2013-03-03 05:00:00,
2013-03-02 22:05:00,36.5,27.0,29.73,West,270,4.7,6.5,68,0.00,,,0.00,WUHU216HW,2013-03-03 05:05:00,
2013-03-02 22:10:00,37.6,27.3,29.72,West,270,1.6,6.5,66,0.00,,,0.00,WUHU216HW,2013-03-03 05:10:00,
2013-03-02 22:15:00,37.6,27.6,29.73,North,0,2.0,5.1,67,0.00,,,0.00,WUHU216HW,2013-03-03 05:15:00,
2013-03-02 22:16:00,37.6,28.0,29.72,NNE,23,3.6,5.1,68,0.00,,,0.00,WUHU216HW,2013-03-03 05:16:00,
2013-03-02 22:20:00,37.8,28.2,29.72,NNE,23,1.6,3.8,68,0.00,,,0.00,WUHU216HW,2013-03-03 05:20:00,
2013-03-02 22:21:00,37.8,28.5,29.72,North,0,1.1,3.8,69,0.00,,,0.00,WUHU216HW,2013-03-03 05:21:00,
2013-03-02 22:25:00,37.4,27.9,29.72,WNW,293,3.8,3.8,68,0.00,,,0.00,WUHU216HW,2013-03-03 05:25:00,
2013-03-02 22:26:00,37.3,27.7,29.72,NW,315,3.1,3.8,68,0.00,,,0.00,WUHU216HW,2013-03-03 05:26:00,
2013-03-02 22:30:00,36.5,28.1,29.72,WNW,293,6.3,6.3,71,0.00,,,0.00,WUHU216HW,2013-03-03 05:30:00,
2013-03-02 22:31:00,36.5,28.1,29.72,WNW,293,4.3,6.3,71,0.00,,,0.00,WUHU216HW,2013-03-03 05:31:00,
2013-03-02 22:35:00,36.4,27.9,29.72,West,270,4.9,6.3,71,0.00,,,0.00,WUHU216HW,2013-03-03 05:35:00,
2013-03-02 22:36:00,36.4,27.9,29.72,West,270,4.5,6.3,71,0.00,,,0.00,WUHU216HW,2013-03-03 05:36:00,
2013-03-02 22:40:00,35.8,27.0,29.72,WNW,293,2.2,6.3,70,0.00,,,0.00,WUHU216HW,2013-03-03 05:40:00,
2013-03-02 22:41:00,35.6,26.8,29.71,WNW,293,3.1,5.4,70,0.00,,,0.00,WUHU216HW,2013-03-03 05:41:00,
2013-03-02 22:45:00,35.3,26.8,29.71,West,270,6.9,8.5,71,0.00,,,0.00,WUHU216HW,2013-03-03 05:45:00,
2013-03-02 22:46:00,35.3,27.1,29.71,WNW,293,4.7,8.5,72,0.00,,,0.00,WUHU216HW,2013-03-03 05:46:00,
2013-03-02 22:47:00,35.3,27.5,29.71,North,0,1.1,8.5,73,0.00,,,0.00,WUHU216HW,2013-03-03 05:47:00,
2013-03-02 22:50:00,36.2,28.4,29.71,NNE,23,5.8,8.5,73,0.00,,,0.00,WUHU216HW,2013-03-03 05:50:00,
2013-03-02 22:51:00,36.4,28.2,29.71,NNE,23,6.7,8.5,72,0.00,,,0.00,WUHU216HW,2013-03-03 05:51:00,
2013-03-02 22:52:00,36.9,28.7,29.71,North,0,5.8,8.5,72,0.00,,,0.00,WUHU216HW,2013-03-03 05:52:00,
2013-03-02 22:55:00,37.1,28.3,29.71,West,270,4.7,6.9,70,0.00,,,0.00,WUHU216HW,2013-03-03 05:55:00,
2013-03-02 22:56:00,37.3,28.4,29.71,West,270,4.7,6.9,70,0.00,,,0.00,WUHU216HW,2013-03-03 05:56:00,
2013-03-02 22:57:00,37.1,28.3,29.71,WNW,293,4.0,6.9,70,0.00,,,0.00,WUHU216HW,2013-03-03 05:57:00,
2013-03-02 23:00:00,37.1,28.6,29.71,NNW,338,3.1,6.9,71,0.00,,,0.00,WUHU216HW,2013-03-03 06:00:00,
2013-03-02 23:01:00,37.1,28.3,29.71,NNW,338,3.4,6.9,70,0.00,,,0.00,WUHU216HW,2013-03-03 06:01:00,
2013-03-02 23:03:00,37.1,28.3,29.71,NNW,338,2.7,5.4,70,0.00,,,0.00,WUHU216HW,2013-03-03 06:03:00,
2013-03-02 23:05:00,37.3,28.4,29.71,North,0,2.5,4.7,70,0.00,,,0.00,WUHU216HW,2013-03-03 06:05:00,
2013-03-02 23:06:00,37.3,28.4,29.71,NNE,23,2.7,4.7,70,0.00,,,0.00,WUHU216HW,2013-03-03 06:06:00,
2013-03-02 23:08:00,37.4,28.6,29.70,North,0,1.6,4.0,70,0.00,,,0.00,WUHU216HW,2013-03-03 06:08:00,
2013-03-02 23:11:00,37.3,28.1,29.70,North,0,2.5,3.4,69,0.00,,,0.00,WUHU216HW,2013-03-03 06:11:00,
2013-03-02 23:13:00,37.1,28.3,29.70,North,0,3.1,3.4,70,0.00,,,0.00,WUHU216HW,2013-03-03 06:13:00,
2013-03-02 23:16:00,36.9,27.7,29.70,West,270,4.7,4.9,69,0.00,,,0.00,WUHU216HW,2013-03-03 06:16:00,
2013-03-02 23:18:00,36.5,28.1,29.70,WNW,293,5.1,5.8,71,0.00,,,0.00,WUHU216HW,2013-03-03 06:18:00,
2013-03-02 23:21:00,36.4,27.9,29.70,WNW,293,3.4,5.8,71,0.00,,,0.00,WUHU216HW,2013-03-03 06:21:00,
2013-03-02 23:22:00,36.4,27.9,29.70,WNW,293,4.0,5.8,71,0.00,,,0.00,WUHU216HW,2013-03-03 06:22:00,
2013-03-02 23:23:00,36.4,27.9,29.70,WNW,293,4.3,5.8,71,0.00,,,0.00,WUHU216HW,2013-03-03 06:23:00,
2013-03-02 23:26:00,36.4,27.9,29.70,WNW,293,3.4,5.8,71,0.00,,,0.00,WUHU216HW,2013-03-03 06:26:00,
2013-03-02 23:27:00,36.4,27.9,29.70,West,270,2.7,5.4,71,0.00,,,0.00,WUHU216HW,2013-03-03 06:27:00,
2013-03-02 23:28:00,36.5,28.1,29.70,WNW,293,2.7,5.4,71,0.00,,,0.00,WUHU216HW,2013-03-03 06:28:00,
2013-03-02 23:31:00,36.4,27.9,29.70,WNW,293,3.6,5.4,71,0.00,,,0.00,WUHU216HW,2013-03-03 06:31:00,
2013-03-02 23:32:00,36.4,27.9,29.70,WNW,293,4.3,5.4,71,0.00,,,0.00,WUHU216HW,2013-03-03 06:32:00,
2013-03-02 23:33:00,36.4,27.9,29.70,WNW,293,3.8,5.4,71,0.00,,,0.00,WUHU216HW,2013-03-03 06:33:00,
2013-03-02 23:36:00,35.8,27.0,29.70,WNW,293,4.0,5.8,70,0.00,,,0.00,WUHU216HW,2013-03-03 06:36:00,
2013-03-02 23:37:00,35.6,26.8,29.70,WNW,293,5.1,5.8,70,0.00,,,0.00,WUHU216HW,2013-03-03 06:37:00,
2013-03-02 23:38:00,35.6,27.2,29.70,WNW,293,4.7,5.8,71,0.00,,,0.00,WUHU216HW,2013-03-03 06:38:00,
2013-03-02 23:41:00,35.8,28.0,29.70,North,0,3.8,5.8,73,0.00,,,0.00,WUHU216HW,2013-03-03 06:41:00,
2013-03-02 23:42:00,35.8,28.0,29.70,North,0,4.0,5.8,73,0.00,,,0.00,WUHU216HW,2013-03-03 06:42:00,
2013-03-02 23:43:00,35.8,28.0,29.70,North,0,3.8,5.8,73,0.00,,,0.00,WUHU216HW,2013-03-03 06:43:00,
2013-03-02 23:46:00,35.6,28.1,29.70,NNW,338,5.1,5.8,74,0.00,,,0.00,WUHU216HW,2013-03-03 06:46:00,
2013-03-02 23:47:00,35.6,28.1,29.70,NNW,338,4.7,5.8,74,0.00,,,0.00,WUHU216HW,2013-03-03 06:47:00,
2013-03-02 23:48:00,35.8,28.3,29.69,NNW,338,4.9,5.8,74,0.00,,,0.00,WUHU216HW,2013-03-03 06:48:00,
2013-03-02 23:52:00,36.2,28.4,29.69,NW,315,5.4,7.2,73,0.00,,,0.00,WUHU216HW,2013-03-03 06:52:00,
2013-03-02 23:53:00,36.2,28.4,29.69,WNW,293,5.4,7.2,73,0.00,,,0.00,WUHU216HW,2013-03-03 06:53:00,
2013-03-02 23:57:00,36.0,28.4,29.69,North,0,3.4,7.2,74,0.00,,,0.00,WUHU216HW,2013-03-03 06:57:00,
2013-03-02 23:58:00,36.0,28.4,29.69,North,0,6.3,7.2,74,0.00,,,0.00,WUHU216HW,2013-03-03 06:58:00,
2013-03-02 23:59:00,36.2,28.6,29.69,North,0,6.9,7.4,74,0.00,,,0.00,WUHU216HW,2013-03-03 06:59:00,